M I D A S
Marine Information and Data Acquisition System
Tripno 1058 of the Zeeleeuw from 2006-03-29 06:38:57 to 2006-03-29 13:25:43
Back to CruiseResearch ActivitiesStationsMapUnderway DataData graphs

EquipmentUnitsComment
TimeDGPSUTC
LatitudeDGPSDM.mWGS84
LongitudeDGPSDM.mWGS84
TemperatureSBE03/SBE38deg celciusITS90
ConductivitySBE21S/mITS90
SalinitySBE21 Practical Salinity Units
ChlorophylAChelsea fluorimeterg/lCalibrated in Aceton
Missing or incorrect values are displayed as -999
Sea surface data collected by the RV Zeeleeuw from 2006-03-29 06:39:03 to 2006-03-29 13:39:00
                                                                                    Next 1000 lines
Time Latitude Longitude Temperature Conductivity Salinity ChlorophylA
2006-03-29 06:39:12 51°13.598 2°56.092 -999 3.955338 27.855318 17.118443
2006-03-29 06:39:18 51°13.599 2°56.089 -999 3.955234 27.854507 17.118443
2006-03-29 06:39:22 51°13.599 2°56.088 -999 3.955234 27.854507 17.118443
2006-03-29 06:39:28 51°13.6 2°56.085 -999 3.955338 27.855318 17.118443
2006-03-29 06:39:32 51°13.601 2°56.082 -999 3.955338 27.855318 17.118443
2006-03-29 06:39:37 51°13.602 2°56.079 -999 3.955338 27.855318 17.118443
2006-03-29 06:39:43 51°13.603 2°56.075 -999 3.891602 27.36283 30.871879
2006-03-29 06:39:48 51°13.605 2°56.07 -999 3.954925 27.963597 29.388665
2006-03-29 06:39:53 51°13.606 2°56.066 -999 3.954925 27.963597 29.388665
2006-03-29 06:39:58 51°13.607 2°56.06 -999 3.948707 27.912187 34.074272
2006-03-29 06:40:03 51°13.609 2°56.054 -999 3.745208 26.708237 36.602477
2006-03-29 06:40:08 51°13.61 2°56.047 -999 3.830296 28.956143 25.815469
2006-03-29 06:40:12 51°13.612 2°56.041 -999 3.766305 30.733694 25.512084
2006-03-29 06:40:18 51°13.614 2°56.032 -999 3.554609 29.904657 26.085144
2006-03-29 06:40:23 51°13.616 2°56.024 -999 3.554609 29.904657 26.085144
2006-03-29 06:40:28 51°13.618 2°56.016 -999 3.447869 29.654081 25.984016
2006-03-29 06:40:33 51°13.62 2°56.008 -999 3.347465 29.228422 26.455947
2006-03-29 06:40:38 51°13.622 2°55.999 -999 3.271815 29.050742 26.051435
2006-03-29 06:40:43 51°13.625 2°55.99 -999 3.210041 28.796579 25.276118
2006-03-29 06:40:48 51°13.627 2°55.981 -999 3.191108 28.870849 24.669349
2006-03-29 06:40:53 51°13.63 2°55.971 -999 3.191108 28.870849 24.669349
2006-03-29 06:40:58 51°13.633 2°55.962 -999 3.143103 28.616374 24.467093
2006-03-29 06:41:03 51°13.636 2°55.952 -999 3.109584 28.341735 24.096289
2006-03-29 06:41:08 51°13.64 2°55.942 -999 3.102649 27.977618 22.714204
2006-03-29 06:41:12 51°13.643 2°55.934 -999 3.152513 28.300836 22.040016
2006-03-29 06:41:18 51°13.647 2°55.922 -999 3.152822 28.246111 22.107435
2006-03-29 06:41:23 51°13.652 2°55.912 -999 3.152822 28.246111 22.107435
2006-03-29 06:41:28 51°13.656 2°55.902 -999 3.159442 28.16692 21.80405
2006-03-29 06:41:33 51°13.66 2°55.892 -999 3.19969 28.467919 21.298409
2006-03-29 06:41:38 51°13.664 2°55.882 -999 3.208381 28.463314 21.028734
2006-03-29 06:41:43 51°13.668 2°55.872 -999 3.210967 28.466582 21.163571
2006-03-29 06:41:48 51°13.672 2°55.864 -999 3.190583 28.275683 21.601794
2006-03-29 06:41:52 51°13.674 2°55.857 -999 3.190583 28.275683 21.601794
2006-03-29 06:41:58 51°13.678 2°55.848 -999 2.80428 24.595655 34.411366
2006-03-29 06:42:03 51°13.681 2°55.84 -999 2.473877 21.71326 35.32152
2006-03-29 06:42:08 51°13.684 2°55.833 -999 2.709907 24.291733 35.152973
2006-03-29 06:42:13 51°13.687 2°55.825 -999 3.048552 27.871388 32.725896
2006-03-29 06:42:18 51°13.69 2°55.817 -999 2.705364 24.637584 36.939571
2006-03-29 06:42:23 51°13.692 2°55.81 -999 2.705364 24.637584 36.939571
2006-03-29 06:42:28 51°13.695 2°55.802 -999 3.000151 27.860881 31.175264
2006-03-29 06:42:33 51°13.698 2°55.794 -999 2.369037 21.604416 31.613486
2006-03-29 06:42:38 51°13.7 2°55.787 -999 2.848344 26.539935 31.647195
2006-03-29 06:42:43 51°13.701 2°55.78 -999 2.617002 24.257404 33.770888
2006-03-29 06:42:48 51°13.703 2°55.773 -999 2.84359 26.62962 34.950717
2006-03-29 06:42:53 51°13.705 2°55.767 -999 2.84359 26.62962 34.950717
2006-03-29 06:42:58 51°13.706 2°55.761 -999 2.637673 24.582851 35.32152
2006-03-29 06:43:03 51°13.707 2°55.756 -999 2.373275 21.929611 36.130546
2006-03-29 06:43:08 51°13.708 2°55.751 -999 2.647596 24.772221 34.546204
2006-03-29 06:43:12 51°13.709 2°55.748 -999 2.424718 22.51385 31.984289
2006-03-29 06:43:18 51°13.71 2°55.744 -999 2.399617 22.296647 33.669759
2006-03-29 06:43:23 51°13.71 2°55.742 -999 2.399617 22.296647 33.669759
2006-03-29 06:43:28 51°13.711 2°55.74 -999 2.84442 26.880806 33.06299
2006-03-29 06:43:33 51°13.711 2°55.74 -999 2.675296 25.16933 34.20911
2006-03-29 06:43:38 51°13.712 2°55.741 -999 2.529378 23.678895 33.298956
2006-03-29 06:43:43 51°13.713 2°55.742 -999 2.449307 22.884932 34.343947
2006-03-29 06:43:48 51°13.713 2°55.744 -999 2.590241 24.360158 33.0967
2006-03-29 06:43:53 51°13.715 2°55.746 -999 2.590241 24.360158 33.0967
2006-03-29 06:43:58 51°13.716 2°55.748 -999 2.619178 24.686851 35.388939
2006-03-29 06:44:03 51°13.718 2°55.751 -999 2.282182 21.242201 33.433794
2006-03-29 06:44:08 51°13.719 2°55.752 -999 2.531652 23.814487 32.017999
2006-03-29 06:44:12 51°13.72 2°55.753 -999 2.555315 24.073728 34.141691
2006-03-29 06:44:18 51°13.721 2°55.754 -999 2.617318 24.729358 31.849452
2006-03-29 06:44:23 51°13.722 2°55.754 -999 2.617318 24.729358 31.849452
2006-03-29 06:44:28 51°13.723 2°55.754 -999 2.610601 24.667508 32.894443
2006-03-29 06:44:32 51°13.723 2°55.754 -999 2.632717 24.908558 31.242683
2006-03-29 06:44:38 51°13.723 2°55.752 -999 2.894262 27.656315 27.500939
2006-03-29 06:44:43 51°13.722 2°55.751 -999 2.259567 21.085915 27.568358
2006-03-29 06:44:48 51°13.721 2°55.749 -999 2.494457 23.512694 21.2647
2006-03-29 06:44:53 51°13.72 2°55.747 -999 2.494457 23.512694 21.2647
2006-03-29 06:44:58 51°13.718 2°55.745 -999 2.782907 26.528607 24.399674
2006-03-29 06:45:03 51°13.716 2°55.743 -999 2.675093 25.409338 31.141554
2006-03-29 06:45:08 51°13.715 2°55.741 -999 2.673542 25.407411 32.287674
2006-03-29 06:45:12 51°13.714 2°55.74 -999 2.30728 21.62574 31.782033
2006-03-29 06:45:18 51°13.712 2°55.738 -999 2.540437 24.037647 32.658477
2006-03-29 06:45:23 51°13.712 2°55.737 -999 2.540437 24.037647 32.658477
2006-03-29 06:45:28 51°13.711 2°55.737 -999 2.71127 25.824867 34.006853
2006-03-29 06:45:33 51°13.712 2°55.737 -999 2.824676 27.020246 34.107982
2006-03-29 06:45:38 51°13.712 2°55.736 -999 2.380097 22.39366 30.770751
2006-03-29 06:45:43 51°13.714 2°55.736 -999 2.693595 25.661713 31.074136
2006-03-29 06:45:48 51°13.716 2°55.736 -999 2.333927 21.934625 31.310101
2006-03-29 06:45:52 51°13.718 2°55.735 -999 2.333927 21.934625 31.310101
2006-03-29 06:45:58 51°13.721 2°55.733 -999 2.43309 22.962347 32.591059
2006-03-29 06:46:03 51°13.724 2°55.732 -999 2.434537 22.984712 28.54593
2006-03-29 06:46:08 51°13.727 2°55.729 -999 2.536304 24.039124 33.905725
2006-03-29 06:46:13 51°13.73 2°55.726 -999 2.679538 25.543901 31.680905
2006-03-29 06:46:17 51°13.733 2°55.723 -999 2.334857 21.965395 33.332665
2006-03-29 06:46:23 51°13.738 2°55.719 -999 2.334857 21.965395 33.332665
2006-03-29 06:46:28 51°13.742 2°55.714 -999 2.83698 27.20902 30.703332
2006-03-29 06:46:32 51°13.745 2°55.71 -999 2.319055 21.81434 31.208973
2006-03-29 06:46:38 51°13.751 2°55.705 -999 2.323289 21.867362 32.928153
2006-03-29 06:46:43 51°13.756 2°55.7 -999 2.713028 25.931512 30.939298
2006-03-29 06:46:48 51°13.761 2°55.694 -999 2.416562 22.842828 31.141554
2006-03-29 06:46:53 51°13.766 2°55.689 -999 2.416562 22.842828 31.141554
2006-03-29 06:46:58 51°13.772 2°55.683 -999 2.390738 22.583262 31.276392
2006-03-29 06:47:03 51°13.778 2°55.677 -999 2.289001 21.544335 32.152836
2006-03-29 06:47:08 51°13.784 2°55.671 -999 2.520806 23.947942 31.141554
2006-03-29 06:47:13 51°13.791 2°55.665 -999 2.51316 23.869506 30.568494
2006-03-29 06:47:18 51°13.799 2°55.658 -999 2.264526 21.292308 33.06299
2006-03-29 06:47:23 51°13.806 2°55.652 -999 2.264526 21.292308 33.06299
2006-03-29 06:47:28 51°13.814 2°55.645 -999 2.31575 21.81721 26.523366
2006-03-29 06:47:33 51°13.823 2°55.638 -999 2.382577 22.503635 30.83817
2006-03-29 06:47:38 51°13.831 2°55.631 -999 2.567924 24.42938 33.164118
2006-03-29 06:47:43 51°13.84 2°55.624 -999 2.132358 19.932252 34.1754
2006-03-29 06:47:48 51°13.849 2°55.617 -999 2.463567 23.344989 31.647195
2006-03-29 06:47:53 51°13.858 2°55.609 -999 2.463567 23.344989 31.647195
2006-03-29 06:47:58 51°13.868 2°55.602 -999 2.727913 26.112683 34.141691
2006-03-29 06:48:03 51°13.877 2°55.595 -999 2.071139 19.312139 32.793315
2006-03-29 06:48:08 51°13.887 2°55.588 -999 2.534858 24.097133 29.860597
2006-03-29 06:48:13 51°13.897 2°55.581 -999 2.258846 21.237298 29.456084
2006-03-29 06:48:18 51°13.907 2°55.574 -999 2.580325 24.575519 31.310101
2006-03-29 06:48:23 51°13.917 2°55.566 -999 2.580325 24.575519 31.310101
2006-03-29 06:48:28 51°13.927 2°55.559 -999 2.29117 21.573649 29.321247
2006-03-29 06:48:32 51°13.935 2°55.553 -999 2.315234 21.823038 28.916734
2006-03-29 06:48:38 51°13.948 2°55.545 -999 2.790353 26.793075 27.534648
2006-03-29 06:48:43 51°13.958 2°55.538 -999 2.382061 22.522524 30.366238
2006-03-29 06:48:48 51°13.968 2°55.531 -999 2.629826 25.11029 34.1754
2006-03-29 06:48:53 51°13.978 2°55.524 -999 2.629826 25.11029 34.1754
2006-03-29 06:48:58 51°13.988 2°55.517 -999 2.562861 24.413264 31.748324
2006-03-29 06:49:03 51°13.998 2°55.511 -999 2.478032 23.533389 25.646922
2006-03-29 06:49:08 51°14.007 2°55.504 -999 2.534135 24.122052 33.0967
2006-03-29 06:49:12 51°14.014 2°55.499 -999 1.975765 18.372289 23.691777
2006-03-29 06:49:18 51°14.024 2°55.492 -999 2.600476 24.825227 29.658341
2006-03-29 06:49:23 51°14.033 2°55.486 -999 2.600476 24.825227 29.658341
2006-03-29 06:49:28 51°14.041 2°55.48 -999 2.382062 22.551071 31.276392
2006-03-29 06:49:33 51°14.049 2°55.474 -999 2.350558 22.225679 31.512358
2006-03-29 06:49:38 51°14.058 2°55.468 -999 2.566168 24.478867 31.849452
2006-03-29 06:49:43 51°14.066 2°55.461 -999 2.300362 21.714016 31.444939
2006-03-29 06:49:48 51°14.075 2°55.455 -999 2.530416 24.107228 29.69205
2006-03-29 06:49:53 51°14.084 2°55.448 -999 2.530416 24.107228 29.69205
2006-03-29 06:49:58 51°14.093 2°55.441 -999 2.710445 25.999426 31.647195
2006-03-29 06:50:03 51°14.102 2°55.434 -999 2.66817 25.557865 31.444939
2006-03-29 06:50:08 51°14.111 2°55.427 -999 2.655458 25.429489 31.613486
2006-03-29 06:50:13 51°14.12 2°55.42 -999 2.686568 25.760792 31.006717
2006-03-29 06:50:18 51°14.129 2°55.413 -999 2.576709 24.606592 28.107708
2006-03-29 06:50:23 51°14.139 2°55.405 -999 2.576709 24.606592 28.107708
2006-03-29 06:50:28 51°14.148 2°55.398 -999 2.607194 24.929993 27.163845
2006-03-29 06:50:32 51°14.155 2°55.391 -999 2.814443 27.121784 31.208973
2006-03-29 06:50:38 51°14.166 2°55.382 -999 2.617425 25.044289 32.253965
2006-03-29 06:50:43 51°14.175 2°55.374 -999 2.45613 23.351882 31.748324
2006-03-29 06:50:48 51°14.184 2°55.365 -999 2.830261 27.285362 28.478512
2006-03-29 06:50:53 51°14.193 2°55.356 -999 2.830261 27.285362 28.478512
2006-03-29 06:50:58 51°14.202 2°55.346 -999 2.605437 24.905479 33.602341
2006-03-29 06:51:03 51°14.21 2°55.337 -999 2.590866 24.747803 31.343811
2006-03-29 06:51:08 51°14.218 2°55.326 -999 2.699798 25.889888 30.973007
2006-03-29 06:51:13 51°14.226 2°55.316 -999 2.600683 24.844147 26.557076
2006-03-29 06:51:18 51°14.234 2°55.305 -999 2.566995 24.48885 31.175264
2006-03-29 06:51:23 51°14.242 2°55.293 -999 2.566995 24.48885 31.175264
2006-03-29 06:51:28 51°14.25 2°55.282 -999 2.497249 23.759979 30.433657
2006-03-29 06:51:32 51°14.255 2°55.272 -999 2.655561 25.42028 31.276392
2006-03-29 06:51:38 51°14.264 2°55.258 -999 2.569475 24.516161 28.781896
2006-03-29 06:51:43 51°14.271 2°55.245 -999 2.426274 23.028942 31.276392
2006-03-29 06:51:48 51°14.278 2°55.233 -999 2.66507 25.5321 27.062717
2006-03-29 06:51:53 51°14.285 2°55.22 -999 2.66507 25.5321 27.062717
2006-03-29 06:51:58 51°14.291 2°55.206 -999 2.707654 25.986109 25.2087
2006-03-29 06:52:03 51°14.298 2°55.194 -999 2.522047 24.038523 26.927879
2006-03-29 06:52:08 51°14.305 2°55.181 -999 2.563688 24.476004 29.354956
2006-03-29 06:52:12 51°14.31 2°55.17 -999 2.659489 25.481569 28.309965
2006-03-29 06:52:18 51°14.318 2°55.155 -999 2.358511 22.334588 32.894443
2006-03-29 06:52:23 51°14.325 2°55.142 -999 2.358511 22.334588 32.894443
2006-03-29 06:52:28 51°14.332 2°55.129 -999 2.485781 23.65559 32.827024
2006-03-29 06:52:33 51°14.339 2°55.117 -999 2.424414 23.009591 31.546067
2006-03-29 06:52:38 51°14.346 2°55.104 -999 2.689876 25.785929 30.737042
2006-03-29 06:52:43 51°14.354 2°55.092 -999 2.571852 24.542395 32.793315
2006-03-29 06:52:48 51°14.361 2°55.08 -999 2.185944 20.536211 31.613486
2006-03-29 06:52:52 51°14.367 2°55.07 -999 2.185944 20.536211 31.613486
2006-03-29 06:52:58 51°14.377 2°55.056 -999 2.5981 24.815691 31.579777
2006-03-29 06:53:02 51°14.383 2°55.047 -999 2.598203 24.816106 33.838306
2006-03-29 06:53:07 51°14.392 2°55.035 -999 2.425654 23.011931 23.52323
2006-03-29 06:53:13 51°14.403 2°55.021 -999 2.363779 22.366299 25.006443
2006-03-29 06:53:18 51°14.413 2°55.009 -999 2.267624 21.371927 30.905589
2006-03-29 06:53:23 51°14.423 2°54.996 -999 2.267624 21.371927 30.905589
2006-03-29 06:53:27 51°14.43 2°54.986 -999 2.284148 21.543607 28.883024
2006-03-29 06:53:33 51°14.443 2°54.969 -999 2.451067 23.276463 30.534785
2006-03-29 06:53:38 51°14.453 2°54.954 -999 2.618252 25.027286 35.152973
2006-03-29 06:53:43 51°14.464 2°54.939 -999 2.561415 24.434347 35.658614
2006-03-29 06:53:47 51°14.472 2°54.925 -999 2.642435 25.290368 32.961862
2006-03-29 06:53:52 51°14.483 2°54.909 -999 2.642435 25.290368 32.961862
2006-03-29 06:53:58 51°14.497 2°54.89 -999 2.506548 23.867401 31.242683
2006-03-29 06:54:03 51°14.509 2°54.874 -999 2.477516 23.570575 31.883161
2006-03-29 06:54:07 51°14.519 2°54.862 -999 2.657628 25.462658 31.074136
2006-03-29 06:54:13 51°14.535 2°54.845 -999 2.611431 24.980592 32.119127
2006-03-29 06:54:16 51°14.544 2°54.837 -999 2.410779 22.885038 30.2314
2006-03-29 06:54:23 51°14.564 2°54.82 -999 2.410779 22.885038 30.2314
2006-03-29 06:54:27 51°14.576 2°54.81 -999 2.603164 24.895046 32.017999
2006-03-29 06:54:32 51°14.591 2°54.798 -999 2.616702 25.034652 24.568221
2006-03-29 06:54:37 51°14.605 2°54.785 -999 2.394974 22.713875 33.568631
2006-03-29 06:54:43 51°14.622 2°54.769 -999 2.586216 24.711684 33.905725
2006-03-29 06:54:47 51°14.634 2°54.758 -999 2.499212 23.797818 21.669212
2006-03-29 06:54:52 51°14.648 2°54.743 -999 2.499212 23.797818 21.669212
2006-03-29 06:54:58 51°14.666 2°54.725 -999 2.769057 26.639766 30.130272
2006-03-29 06:55:03 51°14.679 2°54.71 -999 2.753241 26.474436 35.658614
2006-03-29 06:55:07 51°14.691 2°54.697 -999 2.696078 25.874389 31.916871
2006-03-29 06:55:12 51°14.705 2°54.681 -999 2.826953 27.259058 29.894306
2006-03-29 06:55:17 51°14.719 2°54.666 -999 2.904606 28.089442 27.096426
2006-03-29 06:55:22 51°14.733 2°54.65 -999 2.904606 28.089442 27.096426
2006-03-29 06:55:27 51°14.747 2°54.635 -999 2.794076 26.918033 24.972734
2006-03-29 06:55:32 51°14.762 2°54.619 -999 2.340126 22.155893 24.197418
2006-03-29 06:55:37 51°14.776 2°54.604 -999 2.774226 26.71474 30.939298
2006-03-29 06:55:43 51°14.793 2°54.586 -999 2.8162 27.160264 31.613486
2006-03-29 06:55:47 51°14.805 2°54.574 -999 2.778258 26.758219 30.096563
2006-03-29 06:55:52 51°14.819 2°54.559 -999 2.778258 26.758219 30.096563
2006-03-29 06:55:57 51°14.834 2°54.544 -999 2.692563 25.849866 32.051708
2006-03-29 06:56:03 51°14.851 2°54.526 -999 2.666414 25.571809 30.770751
2006-03-29 06:56:08 51°14.865 2°54.51 -999 3.00482 29.168775 31.310101
2006-03-29 06:56:12 51°14.876 2°54.498 -999 2.530106 24.134601 33.298956
2006-03-29 06:56:18 51°14.893 2°54.48 -999 2.783014 26.795616 32.085418
2006-03-29 06:56:23 51°14.908 2°54.464 -999 2.783014 26.795616 32.085418
2006-03-29 06:56:28 51°14.922 2°54.449 -999 2.87648 27.786646 30.366238
2006-03-29 06:56:33 51°14.936 2°54.434 -999 3.059745 29.745466 29.287537
2006-03-29 06:56:36 51°14.945 2°54.425 -999 3.116332 30.352569 32.287674
2006-03-29 06:56:42 51°14.962 2°54.407 -999 2.710445 26.021907 34.20911
2006-03-29 06:56:48 51°14.98 2°54.391 -999 2.150633 20.192894 28.950443
2006-03-29 06:56:52 51°14.991 2°54.381 -999 2.150633 20.192894 28.950443
2006-03-29 06:56:58 51°15.009 2°54.365 -999 2.886717 27.893438 35.085554
2006-03-29 06:57:03 51°15.023 2°54.351 -999 3.179444 31.033392 28.916734
2006-03-29 06:57:08 51°15.037 2°54.339 -999 3.010095 29.209525 34.242819
2006-03-29 06:57:12 51°15.049 2°54.328 -999 2.978446 28.869818 37.546341
2006-03-29 06:57:18 51°15.067 2°54.315 -999 3.116849 30.350752 31.680905
2006-03-29 06:57:22 51°15.079 2°54.306 -999 3.116849 30.350752 31.680905
2006-03-29 06:57:27 51°15.094 2°54.295 -999 3.08002 29.951243 32.961862
2006-03-29 06:57:33 51°15.112 2°54.282 -999 2.924564 28.285591 37.0407
2006-03-29 06:57:38 51°15.127 2°54.271 -999 3.037298 29.490086 32.692187
2006-03-29 06:57:43 51°15.142 2°54.259 -999 2.697111 25.868523 31.916871
2006-03-29 06:57:48 51°15.156 2°54.248 -999 2.994994 29.031264 27.399811
2006-03-29 06:57:52 51°15.168 2°54.238 -999 2.994994 29.031264 27.399811
2006-03-29 06:57:58 51°15.186 2°54.222 -999 2.686051 25.748387 30.332529
2006-03-29 06:58:03 51°15.2 2°54.206 -999 3.059331 29.721728 34.78217
2006-03-29 06:58:08 51°15.214 2°54.19 -999 3.113952 30.311362 35.624905
2006-03-29 06:58:12 51°15.225 2°54.176 -999 3.068538 29.829461 35.961999
2006-03-29 06:58:18 51°15.241 2°54.156 -999 2.26463 21.362359 34.74846
2006-03-29 06:58:23 51°15.254 2°54.138 -999 2.26463 21.362359 34.74846
2006-03-29 06:58:27 51°15.265 2°54.125 -999 2.736908 26.300904 33.737178
2006-03-29 06:58:32 51°15.279 2°54.108 -999 3.152957 30.746581 32.827024
2006-03-29 06:58:38 51°15.296 2°54.088 -999 3.039884 29.532196 35.591195
2006-03-29 06:58:43 51°15.31 2°54.073 -999 2.524837 24.076169 32.961862
2006-03-29 06:58:48 51°15.325 2°54.059 -999 2.953004 28.614762 33.568631
2006-03-29 06:58:52 51°15.337 2°54.049 -999 2.953004 28.614762 33.568631
2006-03-29 06:58:58 51°15.356 2°54.035 -999 2.728328 26.228607 31.647195
2006-03-29 06:59:03 51°15.372 2°54.025 -999 3.157613 30.818501 35.287811
2006-03-29 06:59:08 51°15.388 2°54.014 -999 2.700212 25.936269 35.32152
2006-03-29 06:59:12 51°15.4 2°54.005 -999 3.021887 29.361336 35.287811
2006-03-29 06:59:17 51°15.416 2°53.995 -999 2.424002 23.039501 35.051845
2006-03-29 06:59:22 51°15.432 2°53.983 -999 2.424002 23.039501 35.051845
2006-03-29 06:59:28 51°15.451 2°53.969 -999 2.910708 28.176623 32.860734
2006-03-29 06:59:33 51°15.467 2°53.956 -999 3.009371 29.233387 32.928153
2006-03-29 06:59:36 51°15.476 2°53.948 -999 2.606884 24.959775 35.995708
2006-03-29 06:59:42 51°15.494 2°53.931 -999 3.253949 31.878522 33.130409
2006-03-29 06:59:48 51°15.512 2°53.915 -999 2.938009 28.4768 22.613076
2006-03-29 06:59:52 51°15.524 2°53.903 -999 2.938009 28.4768 22.613076
2006-03-29 06:59:57 51°15.539 2°53.888 -999 2.870173 27.752494 35.085554
2006-03-29 07:00:02 51°15.555 2°53.874 -999 2.991788 29.055055 37.681178
2006-03-29 07:00:07 51°15.57 2°53.859 -999 2.749623 26.474061 28.613349
2006-03-29 07:00:13 51°15.588 2°53.843 -999 2.418733 22.997039 35.186683
2006-03-29 07:00:18 51°15.603 2°53.828 -999 2.904917 28.130026 34.647332
2006-03-29 07:00:23 51°15.619 2°53.814 -999 2.904917 28.130026 34.647332
2006-03-29 07:00:28 51°15.634 2°53.8 -999 2.90409 28.121952 36.197965
2006-03-29 07:00:32 51°15.646 2°53.79 -999 3.055401 29.745462 35.35523
2006-03-29 07:00:38 51°15.665 2°53.773 -999 3.164235 30.921842 29.220118
2006-03-29 07:00:43 51°15.68 2°53.759 -999 2.435985 23.185744 30.80446
2006-03-29 07:00:48 51°15.695 2°53.745 -999 2.808033 27.106494 37.546341
2006-03-29 07:00:52 51°15.707 2°53.734 -999 2.808033 27.106494 37.546341
2006-03-29 07:00:58 51°15.725 2°53.718 -999 3.114574 30.392002 34.647332
2006-03-29 07:01:03 51°15.741 2°53.704 -999 3.221145 31.546661 28.276255
2006-03-29 07:01:08 51°15.756 2°53.691 -999 3.040195 29.592358 35.287811
2006-03-29 07:01:12 51°15.768 2°53.681 -999 2.64595 25.393864 34.714751
2006-03-29 07:01:18 51°15.787 2°53.665 -999 2.34622 22.254587 35.692324
2006-03-29 07:01:23 51°15.803 2°53.653 -999 2.34622 22.254587 35.692324
2006-03-29 07:01:27 51°15.815 2°53.643 -999 3.184825 31.15391 32.624768
2006-03-29 07:01:32 51°15.831 2°53.631 -999 3.141473 30.687461 34.950717
2006-03-29 07:01:36 51°15.843 2°53.621 -999 2.670238 25.650985 35.557486
2006-03-29 07:01:43 51°15.865 2°53.604 -999 2.769368 26.70078 34.579913
2006-03-29 07:01:48 51°15.88 2°53.592 -999 2.771125 26.716543 34.613623
2006-03-29 07:01:52 51°15.893 2°53.582 -999 2.771125 26.716543 34.613623
2006-03-29 07:01:57 51°15.908 2°53.57 -999 2.376898 22.570552 27.736905
2006-03-29 07:02:02 51°15.923 2°53.557 -999 3.183066 31.127267 34.681042
2006-03-29 07:02:08 51°15.941 2°53.542 -999 3.02168 29.391735 35.726033
2006-03-29 07:02:13 51°15.957 2°53.529 -999 2.874516 27.817621 33.298956
2006-03-29 07:02:18 51°15.972 2°53.517 -999 2.918774 28.292631 16.006033
2006-03-29 07:02:22 51°15.984 2°53.506 -999 2.918774 28.292631 16.006033
2006-03-29 07:02:27 51°15.999 2°53.493 -999 3.059539 29.803709 30.433657
2006-03-29 07:02:33 51°16.017 2°53.478 -999 2.587353 24.779854 32.52364
2006-03-29 07:02:38 51°16.032 2°53.465 -999 3.001511 29.187 22.309691
2006-03-29 07:02:43 51°16.047 2°53.451 -999 2.831193 27.369958 31.040426
2006-03-29 07:02:47 51°16.059 2°53.441 -999 2.947007 28.610229 33.63605
2006-03-29 07:02:52 51°16.074 2°53.428 -999 2.947007 28.610229 33.63605
2006-03-29 07:02:58 51°16.092 2°53.413 -999 2.996029 29.143155 36.602477
2006-03-29 07:03:03 51°16.108 2°53.4 -999 2.966657 28.841178 34.512494
2006-03-29 07:03:08 51°16.123 2°53.388 -999 3.156579 30.892652 34.20911
2006-03-29 07:03:13 51°16.138 2°53.375 -999 2.879377 27.924711 36.265383
2006-03-29 07:03:18 51°16.154 2°53.363 -999 3.147268 30.826158 33.197828
2006-03-29 07:03:23 51°16.169 2°53.351 -999 3.147268 30.826158 33.197828
2006-03-29 07:03:28 51°16.184 2°53.339 -999 2.865314 27.805342 35.692324
2006-03-29 07:03:32 51°16.197 2°53.329 -999 2.991479 29.168664 35.557486
2006-03-29 07:03:37 51°16.212 2°53.316 -999 2.77826 26.895012 38.793589
2006-03-29 07:03:43 51°16.23 2°53.3 -999 2.862626 27.806821 33.872016
2006-03-29 07:03:48 51°16.245 2°53.287 -999 2.681919 25.889423 30.973007
2006-03-29 07:03:52 51°16.257 2°53.276 -999 2.681919 25.889423 30.973007
2006-03-29 07:03:56 51°16.269 2°53.265 -999 2.852804 27.719768 35.254101
2006-03-29 07:04:02 51°16.287 2°53.249 -999 2.9407 28.673301 35.254101
2006-03-29 07:04:08 51°16.305 2°53.232 -999 2.419665 23.145797 31.815742
2006-03-29 07:04:12 51°16.317 2°53.221 -999 3.051369 29.878596 35.287811
2006-03-29 07:04:18 51°16.335 2°53.205 -999 2.738254 26.528116 28.815606
2006-03-29 07:04:23 51°16.35 2°53.192 -999 2.738254 26.528116 28.815606
2006-03-29 07:04:28 51°16.366 2°53.179 -999 2.551911 24.5576 28.444802
2006-03-29 07:04:33 51°16.381 2°53.166 -999 3.160513 31.09488 35.220392
2006-03-29 07:04:37 51°16.393 2°53.156 -999 3.144786 30.928784 35.658614
2006-03-29 07:04:42 51°16.408 2°53.142 -999 2.682437 25.959213 18.163435
2006-03-29 07:04:47 51°16.423 2°53.129 -999 2.962522 28.965843 30.029144
2006-03-29 07:04:52 51°16.439 2°53.116 -999 2.962522 28.965843 30.029144
2006-03-29 07:04:58 51°16.457 2°53.1 -999 2.654737 25.670172 33.669759
2006-03-29 07:05:03 51°16.473 2°53.088 -999 2.999858 29.377981 35.928289
2006-03-29 07:05:08 51°16.488 2°53.076 -999 3.19352 31.483773 35.726033
2006-03-29 07:05:12 51°16.501 2°53.067 -999 2.691119 26.067303 36.029418
2006-03-29 07:05:18 51°16.519 2°53.051 -999 3.122749 30.720158 32.827024
2006-03-29 07:05:23 51°16.535 2°53.039 -999 3.122749 30.720158 32.827024
2006-03-29 07:05:28 51°16.55 2°53.026 -999 2.738151 26.575565 28.309965
2006-03-29 07:05:33 51°16.565 2°53.013 -999 2.748799 26.692257 34.78217
2006-03-29 07:05:36 51°16.574 2°53.005 -999 2.821373 27.476187 28.242546
2006-03-29 07:05:42 51°16.592 2°52.989 -999 2.897578 28.298494 38.894717
2006-03-29 07:05:48 51°16.611 2°52.974 -999 2.695977 26.139777 22.174853
2006-03-29 07:05:52 51°16.623 2°52.964 -999 2.695977 26.139777 22.174853
2006-03-29 07:05:57 51°16.638 2°52.953 -999 2.48785 23.935219 31.444939
2006-03-29 07:06:02 51°16.653 2°52.941 -999 2.582292 24.936024 32.894443
2006-03-29 07:06:08 51°16.672 2°52.926 -999 3.087058 30.364492 38.220529
2006-03-29 07:06:13 51°16.687 2°52.915 -999 2.885273 28.182174 35.726033
2006-03-29 07:06:18 51°16.702 2°52.903 -999 3.134544 30.88316 25.680631
2006-03-29 07:06:23 51°16.717 2°52.891 -999 3.134544 30.88316 25.680631
2006-03-29 07:06:28 51°16.732 2°52.878 -999 3.0613 30.088667 36.535059
2006-03-29 07:06:32 51°16.745 2°52.869 -999 3.076196 30.251369 33.231537
2006-03-29 07:06:38 51°16.762 2°52.854 -999 2.584359 24.969555 27.804324
2006-03-29 07:06:42 51°16.774 2°52.844 -999 2.742493 26.65691 29.220118
2006-03-29 07:06:47 51°16.788 2°52.831 -999 2.993446 29.359185 38.658751
2006-03-29 07:06:52 51°16.803 2°52.819 -999 2.993446 29.359185 38.658751
2006-03-29 07:06:57 51°16.817 2°52.806 -999 2.569995 24.820538 37.58005
2006-03-29 07:07:03 51°16.834 2°52.791 -999 3.030579 29.764142 33.770888
2006-03-29 07:07:07 51°16.846 2°52.781 -999 3.073714 30.233486 33.804597
2006-03-29 07:07:12 51°16.86 2°52.768 -999 2.674789 25.939409 32.894443
2006-03-29 07:07:18 51°16.877 2°52.753 -999 2.892201 28.274603 27.096426
2006-03-29 07:07:23 51°16.891 2°52.74 -999 2.892201 28.274603 27.096426
2006-03-29 07:07:28 51°16.905 2°52.727 -999 2.97514 29.176181 30.163982
2006-03-29 07:07:33 51°16.92 2°52.714 -999 3.113439 30.681791 38.186819
2006-03-29 07:07:38 51°16.934 2°52.7 -999 2.787876 27.165314 39.063264
2006-03-29 07:07:43 51°16.948 2°52.687 -999 2.637685 25.565713 31.512358
2006-03-29 07:07:48 51°16.962 2°52.673 -999 2.685642 26.081602 37.681178
2006-03-29 07:07:52 51°16.974 2°52.663 -999 2.685642 26.081602 37.681178
2006-03-29 07:07:58 51°16.991 2°52.647 -999 3.226944 31.94761 30.399947
2006-03-29 07:08:03 51°17.006 2°52.633 -999 3.015167 29.642433 34.714751
2006-03-29 07:08:07 51°17.018 2°52.624 -999 2.659596 25.816982 37.310375
2006-03-29 07:08:12 51°17.033 2°52.612 -999 2.959834 29.050311 36.838443
2006-03-29 07:08:17 51°17.048 2°52.6 -999 3.084783 30.408006 37.377794
2006-03-29 07:08:23 51°17.065 2°52.587 -999 3.084783 30.408006 37.377794
2006-03-29 07:08:28 51°17.08 2°52.576 -999 3.000997 29.503173 38.051982
2006-03-29 07:08:32 51°17.092 2°52.567 -999 2.865937 28.043059 28.141418
2006-03-29 07:08:37 51°17.107 2°52.556 -999 3.009065 29.599717 31.310101
2006-03-29 07:08:42 51°17.121 2°52.543 -999 3.120578 30.815351 28.714477
2006-03-29 07:08:48 51°17.138 2°52.526 -999 3.07268 30.295258 29.725759
2006-03-29 07:08:53 51°17.151 2°52.51 -999 3.07268 30.295258 29.725759
2006-03-29 07:08:58 51°17.165 2°52.495 -999 3.181311 31.484002 32.995571
2006-03-29 07:09:02 51°17.175 2°52.482 -999 2.791805 27.257499 36.703606
2006-03-29 07:09:07 51°17.188 2°52.465 -999 2.862732 28.022321 36.804734
2006-03-29 07:09:13 51°17.205 2°52.446 -999 2.42886 23.389458 31.141554
2006-03-29 07:09:17 51°17.215 2°52.433 -999 3.118716 30.801778 32.119127
2006-03-29 07:09:22 51°17.229 2°52.418 -999 3.118716 30.801778 32.119127
2006-03-29 07:09:28 51°17.246 2°52.399 -999 2.522154 24.374972 38.254238
2006-03-29 07:09:33 51°17.259 2°52.384 -999 2.62177 25.43381 29.220118
2006-03-29 07:09:38 51°17.273 2°52.368 -999 2.952388 28.98715 29.422375
2006-03-29 07:09:43 51°17.287 2°52.352 -999 3.241846 32.141954 37.512631
2006-03-29 07:09:48 51°17.3 2°52.335 -999 2.98176 29.304049 28.040289
2006-03-29 07:09:52 51°17.31 2°52.32 -999 2.98176 29.304049 28.040289
2006-03-29 07:09:58 51°17.324 2°52.297 -999 2.726471 26.555304 35.557486
2006-03-29 07:10:02 51°17.333 2°52.281 -999 2.770612 27.033419 31.815742
2006-03-29 07:10:07 51°17.344 2°52.261 -999 2.673446 25.994081 37.310375
2006-03-29 07:10:12 51°17.355 2°52.241 -999 2.968625 29.180791 29.523503
2006-03-29 07:10:18 51°17.369 2°52.215 -999 2.703421 26.325696 32.152836
2006-03-29 07:10:23 51°17.379 2°52.194 -999 2.703421 26.325696 32.152836
2006-03-29 07:10:28 51°17.39 2°52.172 -999 2.992827 29.454082 35.658614
2006-03-29 07:10:32 51°17.398 2°52.154 -999 3.20242 31.743281 40.715024
2006-03-29 07:10:37 51°17.407 2°52.131 -999 2.811346 27.497916 36.063127
2006-03-29 07:10:43 51°17.419 2°52.103 -999 2.751591 26.856418 34.917007
2006-03-29 07:10:48 51°17.427 2°52.08 -999 3.083956 30.459172 33.568631
2006-03-29 07:10:53 51°17.436 2°52.055 -999 3.083956 30.459172 33.568631
2006-03-29 07:10:58 51°17.444 2°52.031 -999 2.955284 29.057616 38.15311
2006-03-29 07:11:02 51°17.451 2°52.011 -999 2.588804 25.116352 30.332529
2006-03-29 07:11:08 51°17.461 2°51.982 -999 2.915779 28.630085 27.096426
2006-03-29 07:11:13 51°17.469 2°51.958 -999 2.692671 26.227117 29.1527
2006-03-29 07:11:18 51°17.478 2°51.933 -999 2.925293 28.733955 37.0407
2006-03-29 07:11:22 51°17.484 2°51.913 -999 2.925293 28.733955 37.0407
2006-03-29 07:11:28 51°17.495 2°51.884 -999 2.996964 29.515271 30.534785
2006-03-29 07:11:33 51°17.503 2°51.86 -999 3.246607 32.250069 25.613212
2006-03-29 07:11:38 51°17.512 2°51.836 -999 3.011031 29.670758 28.613349
2006-03-29 07:11:42 51°17.519 2°51.817 -999 2.431237 23.449283 39.198101
2006-03-29 07:11:47 51°17.528 2°51.793 -999 2.966971 29.194915 38.051982
2006-03-29 07:11:52 51°17.537 2°51.77 -999 2.966971 29.194915 38.051982
2006-03-29 07:11:58 51°17.548 2°51.741 -999 2.994585 29.492643 33.838306
2006-03-29 07:12:02 51°17.555 2°51.723 -999 3.036269 29.946444 38.928426
2006-03-29 07:12:07 51°17.564 2°51.699 -999 2.754382 26.896757 36.872153
2006-03-29 07:12:12 51°17.573 2°51.676 -999 2.672516 26.024131 25.613212
2006-03-29 07:12:18 51°17.583 2°51.647 -999 2.654739 25.837378 25.444665
2006-03-29 07:12:23 51°17.591 2°51.623 -999 2.654739 25.837378 25.444665
2006-03-29 07:12:28 51°17.6 2°51.599 -999 2.86935 28.149381 24.736768
2006-03-29 07:12:33 51°17.608 2°51.575 -999 3.141374 31.11696 28.815606
2006-03-29 07:12:36 51°17.613 2°51.56 -999 3.063268 30.265825 36.164255
2006-03-29 07:12:43 51°17.624 2°51.526 -999 3.003274 29.610771 43.546614
2006-03-29 07:12:48 51°17.632 2°51.502 -999 3.089647 30.554082 41.557759
2006-03-29 07:12:53 51°17.641 2°51.479 -999 3.089647 30.554082 41.557759
2006-03-29 07:12:56 51°17.646 2°51.465 -999 2.805556 27.467235 32.321383
2006-03-29 07:13:03 51°17.658 2°51.432 -999 3.088819 30.543351 36.299093
2006-03-29 07:13:08 51°17.667 2°51.408 -999 3.042269 30.034965 36.771024
2006-03-29 07:13:13 51°17.676 2°51.385 -999 2.696289 26.294061 24.63564
2006-03-29 07:13:16 51°17.682 2°51.371 -999 2.971418 29.271404 25.882888
2006-03-29 07:13:22 51°17.693 2°51.343 -999 2.971418 29.271404 25.882888
2006-03-29 07:13:28 51°17.703 2°51.315 -999 2.889618 28.385883 26.759332
2006-03-29 07:13:32 51°17.71 2°51.296 -999 2.910816 28.620382 28.714477
2006-03-29 07:13:37 51°17.719 2°51.272 -999 2.607199 25.353616 31.546067
2006-03-29 07:13:43 51°17.729 2°51.243 -999 2.610403 25.388553 33.905725
2006-03-29 07:13:48 51°17.738 2°51.218 -999 2.927052 28.805275 26.422238
2006-03-29 07:13:52 51°17.744 2°51.199 -999 2.927052 28.805275 26.422238
2006-03-29 07:13:58 51°17.754 2°51.169 -999 2.90244 28.539765 36.400221
2006-03-29 07:14:03 51°17.762 2°51.144 -999 3.094819 30.637643 37.883435
2006-03-29 07:14:08 51°17.771 2°51.12 -999 2.683266 26.177426 29.523503
2006-03-29 07:14:13 51°17.779 2°51.095 -999 3.083543 30.520128 29.253828
2006-03-29 07:14:18 51°17.788 2°51.071 -999 2.858287 28.069125 37.175537
2006-03-29 07:14:23 51°17.796 2°51.045 -999 2.858287 28.069125 37.175537
2006-03-29 07:14:28 51°17.804 2°51.02 -999 2.693395 26.294117 39.905999
2006-03-29 07:14:32 51°17.81 2°51 -999 3.173552 31.51068 37.344084
2006-03-29 07:14:38 51°17.82 2°50.969 -999 3.208526 31.897152 37.546341
2006-03-29 07:14:43 51°17.828 2°50.944 -999 2.850532 27.99753 35.827161
2006-03-29 07:14:48 51°17.836 2°50.919 -999 2.690398 26.275679 37.00699
2006-03-29 07:14:52 51°17.843 2°50.898 -999 2.690398 26.275679 37.00699
2006-03-29 07:14:58 51°17.853 2°50.868 -999 3.143444 31.1972 35.119264
2006-03-29 07:15:03 51°17.861 2°50.843 -999 3.16093 31.393626 34.445076
2006-03-29 07:15:07 51°17.868 2°50.822 -999 2.620117 25.531765 36.197965
2006-03-29 07:15:12 51°17.876 2°50.797 -999 3.060372 30.300941 36.197965
2006-03-29 07:15:17 51°17.883 2°50.771 -999 3.089544 30.624632 38.422785
2006-03-29 07:15:22 51°17.892 2°50.746 -999 3.089544 30.624632 38.422785
2006-03-29 07:15:28 51°17.901 2°50.715 -999 3.101337 30.758173 40.141965
2006-03-29 07:15:33 51°17.909 2°50.689 -999 2.938118 28.978944 40.647606
2006-03-29 07:15:36 51°17.913 2°50.673 -999 2.828613 27.794819 30.669623
2006-03-29 07:15:43 51°17.924 2°50.637 -999 3.065648 30.386358 34.849589
2006-03-29 07:15:48 51°17.932 2°50.611 -999 3.008343 29.765943 37.310375
2006-03-29 07:15:53 51°17.94 2°50.585 -999 3.008343 29.765943 37.310375
2006-03-29 07:15:58 51°17.947 2°50.559 -999 2.590768 25.253159 34.647332
2006-03-29 07:16:03 51°17.954 2°50.532 -999 3.085303 30.615337 30.602204
2006-03-29 07:16:08 51°17.962 2°50.507 -999 2.711692 26.557272 36.973281
2006-03-29 07:16:13 51°17.97 2°50.481 -999 2.90937 28.705074 33.838306
2006-03-29 07:16:18 51°17.977 2°50.455 -999 2.747871 26.957939 39.467777
2006-03-29 07:16:23 51°17.985 2°50.429 -999 2.747871 26.957939 39.467777
2006-03-29 07:16:28 51°17.993 2°50.403 -999 2.964904 29.317612 36.231674
2006-03-29 07:16:33 51°18.001 2°50.377 -999 3.00069 29.714328 39.198101
2006-03-29 07:16:38 51°18.009 2°50.352 -999 3.158034 31.445101 38.018272
2006-03-29 07:16:43 51°18.017 2°50.326 -999 2.992312 29.635837 34.006853
2006-03-29 07:16:48 51°18.025 2°50.3 -999 2.892928 28.564091 32.085418
2006-03-29 07:16:53 51°18.032 2°50.274 -999 2.892928 28.564091 32.085418
2006-03-29 07:16:58 51°18.04 2°50.247 -999 3.124099 31.098973 29.961725
2006-03-29 07:17:03 51°18.047 2°50.221 -999 2.808763 27.654774 38.861007
2006-03-29 07:17:08 51°18.055 2°50.195 -999 3.039995 30.18134 31.006717
2006-03-29 07:17:12 51°18.061 2°50.174 -999 2.78333 27.38513 34.546204
2006-03-29 07:17:18 51°18.07 2°50.142 -999 2.738361 26.900601 36.43393
2006-03-29 07:17:23 51°18.078 2°50.116 -999 2.738361 26.900601 36.43393
2006-03-29 07:17:28 51°18.086 2°50.09 -999 2.841228 28.022729 32.557349
2006-03-29 07:17:33 51°18.094 2°50.064 -999 2.592423 25.337335 30.197691
2006-03-29 07:17:38 51°18.102 2°50.039 -999 3.087476 30.720704 33.332665
2006-03-29 07:17:42 51°18.109 2°50.018 -999 2.587256 25.290258 34.849589
2006-03-29 07:17:48 51°18.12 2°49.989 -999 2.969766 29.439883 30.130272
2006-03-29 07:17:53 51°18.129 2°49.964 -999 2.969766 29.439883 30.130272
2006-03-29 07:17:58 51°18.139 2°49.94 -999 3.023756 30.03653 32.624768
2006-03-29 07:18:02 51°18.146 2°49.92 -999 2.783744 27.421498 38.72617
2006-03-29 07:18:08 51°18.158 2°49.891 -999 2.515647 24.53007 24.871606
2006-03-29 07:18:13 51°18.167 2°49.866 -999 2.932638 29.042768 30.130272
2006-03-29 07:18:18 51°18.176 2°49.842 -999 2.954459 29.281356 32.658477
2006-03-29 07:18:22 51°18.184 2°49.822 -999 2.954459 29.281356 32.658477
2006-03-29 07:18:28 51°18.195 2°49.793 -999 2.736708 26.914014 35.490067
2006-03-29 07:18:33 51°18.204 2°49.768 -999 3.023135 30.037216 29.557212
2006-03-29 07:18:38 51°18.213 2°49.743 -999 3.002035 29.805717 37.209247
2006-03-29 07:18:43 51°18.222 2°49.718 -999 2.944531 29.17439 40.445349
2006-03-29 07:18:47 51°18.23 2°49.698 -999 2.781573 27.400224 25.646922
2006-03-29 07:18:52 51°18.239 2°49.673 -999 2.781573 27.400224 25.646922
2006-03-29 07:18:58 51°18.25 2°49.644 -999 3.095028 30.825169 31.815742
2006-03-29 07:19:03 51°18.259 2°49.619 -999 2.923331 28.940277 35.523777
2006-03-29 07:19:08 51°18.268 2°49.595 -999 2.984142 29.610409 29.557212
2006-03-29 07:19:13 51°18.278 2°49.57 -999 2.767204 27.248158 34.613623
2006-03-29 07:19:18 51°18.287 2°49.545 -999 2.955494 29.300796 29.725759
2006-03-29 07:19:23 51°18.296 2°49.52 -999 2.955494 29.300796 29.725759
2006-03-29 07:19:27 51°18.303 2°49.5 -999 3.024584 30.062286 39.467777
2006-03-29 07:19:32 51°18.311 2°49.475 -999 2.370293 22.994006 31.546067
2006-03-29 07:19:36 51°18.318 2°49.455 -999 3.032134 30.151911 35.658614
2006-03-29 07:19:42 51°18.329 2°49.425 -999 2.821998 27.856211 40.512768
2006-03-29 07:19:48 51°18.339 2°49.395 -999 2.654121 26.041318 26.051435
2006-03-29 07:19:52 51°18.346 2°49.375 -999 2.654121 26.041318 26.051435
2006-03-29 07:19:58 51°18.357 2°49.344 -999 3.096684 30.869952 38.456494
2006-03-29 07:20:02 51°18.364 2°49.324 -999 3.054167 30.401717 35.32152
2006-03-29 07:20:08 51°18.374 2°49.294 -999 3.036789 30.21648 40.580187
2006-03-29 07:20:13 51°18.383 2°49.268 -999 2.830889 27.965363 40.141965
2006-03-29 07:20:18 51°18.391 2°49.242 -999 3.099788 30.913612 37.344084
2006-03-29 07:20:22 51°18.397 2°49.221 -999 3.099788 30.913612 37.344084
2006-03-29 07:20:28 51°18.406 2°49.19 -999 3.054581 30.416404 39.872289
2006-03-29 07:20:33 51°18.412 2°49.163 -999 2.964595 29.429805 35.051845
2006-03-29 07:20:38 51°18.42 2°49.136 -999 2.963044 29.415255 32.085418
2006-03-29 07:20:43 51°18.427 2°49.11 -999 2.989314 29.704982 34.849589
2006-03-29 07:20:48 51°18.433 2°49.083 -999 2.803698 27.676446 40.243093
2006-03-29 07:20:53 51°18.44 2°49.056 -999 2.803698 27.676446 40.243093
2006-03-29 07:20:58 51°18.447 2°49.029 -999 3.183178 31.843115 28.208836
2006-03-29 07:21:03 51°18.454 2°49.002 -999 3.053857 30.416884 37.512631
2006-03-29 07:21:08 51°18.461 2°48.975 -999 2.645957 25.970536 35.759742
2006-03-29 07:21:13 51°18.469 2°48.949 -999 3.19994 32.030624 30.669623
2006-03-29 07:21:18 51°18.476 2°48.922 -999 3.079511 30.699471 30.433657
2006-03-29 07:21:22 51°18.482 2°48.901 -999 3.079511 30.699471 30.433657
2006-03-29 07:21:28 51°18.491 2°48.87 -999 3.01 29.932926 35.557486
2006-03-29 07:21:32 51°18.498 2°48.849 -999 2.36957 23.006091 31.883161
2006-03-29 07:21:38 51°18.507 2°48.818 -999 2.635105 25.84987 29.590922
2006-03-29 07:21:43 51°18.514 2°48.792 -999 3.046616 30.332131 40.276802
2006-03-29 07:21:48 51°18.522 2°48.765 -999 2.425248 23.596702 37.714888
2006-03-29 07:21:52 51°18.528 2°48.744 -999 2.425248 23.596702 37.714888
2006-03-29 07:21:58 51°18.537 2°48.712 -999 2.819827 27.848822 29.523503
2006-03-29 07:22:03 51°18.543 2°48.685 -999 3.078891 30.684956 35.018136
2006-03-29 07:22:08 51°18.551 2°48.658 -999 3.127617 31.222484 34.883298
2006-03-29 07:22:12 51°18.556 2°48.637 -999 3.018791 30.025352 38.69246
2006-03-29 07:22:18 51°18.565 2°48.605 -999 3.025101 30.09469 28.242546
2006-03-29 07:22:22 51°18.571 2°48.583 -999 3.025101 30.09469 28.242546
2006-03-29 07:22:28 51°18.58 2°48.552 -999 2.893963 28.661043 29.928016
2006-03-29 07:22:33 51°18.587 2°48.525 -999 3.16176 31.60514 37.074409
2006-03-29 07:22:38 51°18.595 2°48.499 -999 3.080236 30.709159 31.613486
2006-03-29 07:22:43 51°18.603 2°48.472 -999 3.144585 31.423925 41.894853
2006-03-29 07:22:48 51°18.611 2°48.445 -999 2.860668 28.307072 31.175264
2006-03-29 07:22:52 51°18.617 2°48.424 -999 2.860668 28.307072 31.175264
2006-03-29 07:22:56 51°18.623 2°48.402 -999 3.226431 32.333439 35.388939
2006-03-29 07:23:02 51°18.632 2°48.37 -999 2.633658 25.847897 37.647469
2006-03-29 07:23:07 51°18.639 2°48.343 -999 3.153483 31.531982 39.434067
2006-03-29 07:23:12 51°18.647 2°48.316 -999 3.021791 30.079201 35.860871
2006-03-29 07:23:18 51°18.655 2°48.283 -999 3.007621 29.925085 46.243366
2006-03-29 07:23:23 51°18.663 2°48.257 -999 3.007621 29.925085 46.243366
2006-03-29 07:23:28 51°18.67 2°48.229 -999 3.070201 30.614743 30.433657
2006-03-29 07:23:32 51°18.676 2°48.208 -999 3.054995 30.447177 35.35523
2006-03-29 07:23:38 51°18.684 2°48.175 -999 3.12441 31.211347 35.793452
2006-03-29 07:23:43 51°18.692 2°48.148 -999 2.845882 28.155213 31.782033
2006-03-29 07:23:48 51°18.699 2°48.12 -999 2.906476 28.821774 30.467366
2006-03-29 07:23:53 51°18.706 2°48.093 -999 2.906476 28.821774 30.467366
2006-03-29 07:23:58 51°18.713 2°48.066 -999 3.004311 29.894529 31.849452
2006-03-29 07:24:03 51°18.72 2°48.039 -999 2.611645 25.620485 39.905999
2006-03-29 07:24:08 51°18.728 2°48.011 -999 3.029239 30.168664 31.040426
2006-03-29 07:24:12 51°18.733 2°47.989 -999 3.233675 32.427399 35.624905
2006-03-29 07:24:17 51°18.741 2°47.962 -999 3.166312 31.680169 36.096836
2006-03-29 07:24:23 51°18.749 2°47.93 -999 3.166312 31.680169 36.096836
2006-03-29 07:24:28 51°18.756 2°47.902 -999 2.933777 29.120616 33.838306
2006-03-29 07:24:33 51°18.763 2°47.874 -999 2.649264 26.027184 31.782033
2006-03-29 07:24:38 51°18.77 2°47.847 -999 3.170451 31.726893 35.490067
2006-03-29 07:24:42 51°18.775 2°47.825 -999 2.581883 25.29984 40.748734
2006-03-29 07:24:48 51°18.783 2°47.79 -999 2.821481 27.89548 39.332939
2006-03-29 07:24:53 51°18.789 2°47.763 -999 2.821481 27.89548 39.332939
2006-03-29 07:24:58 51°18.795 2°47.735 -999 2.761105 27.239438 29.287537
2006-03-29 07:25:03 51°18.801 2°47.707 -999 3.153379 31.539608 34.950717
2006-03-29 07:25:08 51°18.808 2°47.679 -999 2.706318 26.642893 37.445212
2006-03-29 07:25:12 51°18.813 2°47.656 -999 3.109719 31.05596 30.029144
2006-03-29 07:25:18 51°18.82 2°47.623 -999 3.163208 31.643154 37.647469
2006-03-29 07:25:23 51°18.827 2°47.595 -999 3.163208 31.643154 37.647469
2006-03-29 07:25:28 51°18.833 2°47.567 -999 2.92085 28.976651 28.849315
2006-03-29 07:25:33 51°18.84 2°47.54 -999 3.011965 29.976166 29.624631
2006-03-29 07:25:38 51°18.847 2°47.512 -999 3.217325 32.244022 37.714888
2006-03-29 07:25:42 51°18.853 2°47.49 -999 2.859427 28.307691 34.681042
2006-03-29 07:25:48 51°18.86 2°47.456 -999 3.128962 31.270356 27.231264
2006-03-29 07:25:52 51°18.866 2°47.434 -999 3.128962 31.270356 27.231264
2006-03-29 07:25:58 51°18.874 2°47.401 -999 3.087477 30.811257 38.625042
2006-03-29 07:26:02 51°18.879 2°47.378 -999 2.958804 29.397368 39.366648
2006-03-29 07:26:07 51°18.886 2°47.35 -999 2.5297 24.742245 34.714751
2006-03-29 07:26:12 51°18.893 2°47.322 -999 3.185041 31.898324 33.433794
2006-03-29 07:26:18 51°18.901 2°47.289 -999 2.926641 29.054585 37.647469
2006-03-29 07:26:23 51°18.908 2°47.261 -999 2.926641 29.054585 37.647469
2006-03-29 07:26:28 51°18.915 2°47.233 -999 2.942154 29.231893 35.220392
2006-03-29 07:26:32 51°18.92 2°47.21 -999 2.811039 27.804155 28.984153
2006-03-29 07:26:36 51°18.925 2°47.188 -999 3.111168 31.104836 40.074546
2006-03-29 07:26:43 51°18.935 2°47.148 -999 3.048789 30.422806 37.782306
2006-03-29 07:26:48 51°18.941 2°47.12 -999 2.777956 27.462248 32.860734
2006-03-29 07:26:53 51°18.948 2°47.092 -999 2.777956 27.462248 32.860734
2006-03-29 07:26:58 51°18.954 2°47.063 -999 3.041445 30.356196 24.433383
2006-03-29 07:27:02 51°18.96 2°47.041 -999 3.109927 31.120572 38.490204
2006-03-29 07:27:08 51°18.968 2°47.007 -999 2.988384 29.787453 39.737452
2006-03-29 07:27:13 51°18.975 2°46.979 -999 3.032239 30.279988 28.680768
2006-03-29 07:27:18 51°18.981 2°46.95 -999 3.074133 30.748718 33.433794
2006-03-29 07:27:23 51°18.988 2°46.922 -999 3.074133 30.748718 33.433794
2006-03-29 07:27:28 51°18.994 2°46.894 -999 2.981455 29.739372 31.714614
2006-03-29 07:27:33 51°19.001 2°46.865 -999 2.587567 25.452976 27.231264
2006-03-29 07:27:38 51°19.008 2°46.837 -999 3.044549 30.451517 43.78258
2006-03-29 07:27:43 51°19.014 2°46.809 -999 3.113859 31.229384 35.254101
2006-03-29 07:27:48 51°19.021 2°46.78 -999 2.8677 28.528059 31.343811
2006-03-29 07:27:53 51°19.028 2°46.752 -999 2.8677 28.528059 31.343811
2006-03-29 07:27:58 51°19.035 2°46.724 -999 2.961598 29.568609 32.388802
2006-03-29 07:28:03 51°19.042 2°46.696 -999 2.870492 28.569857 38.321657
2006-03-29 07:28:07 51°19.047 2°46.673 -999 2.396532 23.43886 30.939298
2006-03-29 07:28:12 51°19.055 2°46.645 -999 3.034826 30.395839 33.197828
2006-03-29 07:28:18 51°19.063 2°46.611 -999 3.104342 31.168229 41.186956
2006-03-29 07:28:22 51°19.068 2°46.589 -999 3.104342 31.168229 41.186956
2006-03-29 07:28:28 51°19.076 2°46.554 -999 2.841644 28.274026 35.119264
2006-03-29 07:28:32 51°19.082 2°46.532 -999 3.01869 30.226622 24.568221
2006-03-29 07:28:36 51°19.087 2°46.509 -999 3.024379 30.291259 30.568494
2006-03-29 07:28:43 51°19.097 2°46.47 -999 2.961495 29.599735 35.89458
2006-03-29 07:28:48 51°19.104 2°46.442 -999 2.46306 24.170229 32.793315
2006-03-29 07:28:53 51°19.11 2°46.413 -999 2.46306 24.170229 32.793315
2006-03-29 07:28:58 51°19.117 2°46.385 -999 2.644925 26.142322 35.658614
2006-03-29 07:29:03 51°19.124 2°46.357 -999 2.60834 25.746538 38.389076
2006-03-29 07:29:08 51°19.131 2°46.328 -999 2.985282 29.87657 40.917281
2006-03-29 07:29:13 51°19.138 2°46.3 -999 3.114067 31.304279 27.332392
2006-03-29 07:29:17 51°19.143 2°46.278 -999 3.022931 30.293037 39.467777
2006-03-29 07:29:22 51°19.15 2°46.249 -999 3.022931 30.293037 39.467777
2006-03-29 07:29:28 51°19.158 2°46.215 -999 2.372361 23.201926 39.130683
2006-03-29 07:29:32 51°19.163 2°46.192 -999 2.629009 25.967245 24.163708
2006-03-29 07:29:37 51°19.17 2°46.164 -999 3.156278 31.764364 34.20911
2006-03-29 07:29:42 51°19.177 2°46.136 -999 2.80246 27.856373 38.72617
2006-03-29 07:29:47 51°19.184 2°46.108 -999 2.954462 29.529588 22.882751
2006-03-29 07:29:53 51°19.193 2°46.074 -999 2.954462 29.529588 22.882751
2006-03-29 07:29:58 51°19.199 2°46.046 -999 3.032654 30.394757 24.028871
2006-03-29 07:30:03 51°19.206 2°46.018 -999 2.846194 28.342158 35.119264
2006-03-29 07:30:08 51°19.213 2°45.99 -999 2.981559 29.836259 38.625042
2006-03-29 07:30:12 51°19.218 2°45.967 -999 2.538071 24.988398 30.130272
2006-03-29 07:30:18 51°19.227 2°45.933 -999 3.021587 30.27815 30.130272
2006-03-29 07:30:23 51°19.233 2°45.905 -999 3.021587 30.27815 30.130272
2006-03-29 07:30:27 51°19.239 2°45.883 -999 2.731335 27.092506 33.905725
2006-03-29 07:30:32 51°19.246 2°45.854 -999 2.825515 28.126307 33.939435
2006-03-29 07:30:38 51°19.254 2°45.821 -999 3.109515 31.269431 25.849178
2006-03-29 07:30:43 51°19.261 2°45.793 -999 2.906271 29.021256 24.939024
2006-03-29 07:30:47 51°19.266 2°45.77 -999 3.012588 30.200533 36.535059
2006-03-29 07:30:52 51°19.273 2°45.742 -999 3.012588 30.200533 36.535059
2006-03-29 07:30:58 51°19.281 2°45.709 -999 2.628596 25.991839 39.703742
2006-03-29 07:31:03 51°19.288 2°45.681 -999 3.054687 30.673248 38.523913
2006-03-29 07:31:08 51°19.295 2°45.653 -999 2.934089 29.340233 35.051845
2006-03-29 07:31:12 51°19.301 2°45.63 -999 2.718931 26.982794 35.624905
2006-03-29 07:31:18 51°19.309 2°45.597 -999 2.993867 30.008436 28.242546
2006-03-29 07:31:23 51°19.316 2°45.569 -999 2.993867 30.008436 28.242546
2006-03-29 07:31:28 51°19.323 2°45.541 -999 3.143553 31.671434 31.208973
2006-03-29 07:31:32 51°19.329 2°45.518 -999 2.882385 28.783262 37.209247
2006-03-29 07:31:37 51°19.336 2°45.491 -999 2.604207 25.743471 23.253554
2006-03-29 07:31:42 51°19.343 2°45.463 -999 3.133104 31.568237 34.647332
2006-03-29 07:31:48 51°19.352 2°45.43 -999 2.895414 28.939777 36.130546
2006-03-29 07:31:52 51°19.358 2°45.408 -999 2.895414 28.939777 36.130546
2006-03-29 07:31:58 51°19.367 2°45.375 -999 3.118826 31.422343 35.658614
2006-03-29 07:32:03 51°19.374 2°45.348 -999 2.852812 28.476179 31.984289
2006-03-29 07:32:08 51°19.382 2°45.321 -999 2.561321 25.291552 37.242956
2006-03-29 07:32:13 51°19.39 2°45.294 -999 3.013933 30.255276 29.725759
2006-03-29 07:32:18 51°19.398 2°45.267 -999 3.025311 30.378932 39.973418
2006-03-29 07:32:23 51°19.406 2°45.24 -999 3.025311 30.378932 39.973418
2006-03-29 07:32:28 51°19.414 2°45.213 -999 2.744257 27.2848 34.141691
2006-03-29 07:32:33 51°19.422 2°45.187 -999 3.086135 31.059994 36.231674
2006-03-29 07:32:38 51°19.43 2°45.16 -999 2.655261 26.317256 25.478375
2006-03-29 07:32:43 51°19.438 2°45.133 -999 3.023242 30.363649 32.557349
2006-03-29 07:32:48 51°19.446 2°45.105 -999 2.606584 25.789532 32.119127
2006-03-29 07:32:52 51°19.453 2°45.083 -999 2.606584 25.789532 32.119127
2006-03-29 07:32:58 51°19.462 2°45.05 -999 3.022829 30.368435 25.882888
2006-03-29 07:33:02 51°19.468 2°45.027 -999 3.103308 31.259971 36.973281
2006-03-29 07:33:08 51°19.478 2°44.994 -999 2.327431 22.780204 27.130136
2006-03-29 07:33:12 51°19.484 2°44.972 -999 3.104343 31.274132 38.018272
2006-03-29 07:33:17 51°19.492 2°44.945 -999 3.145312 31.729319 38.15311
2006-03-29 07:33:23 51°19.502 2°44.912 -999 3.145312 31.729319 38.15311
2006-03-29 07:33:28 51°19.51 2°44.885 -999 2.745084 27.303041 36.164255
2006-03-29 07:33:32 51°19.516 2°44.863 -999 2.824275 28.17423 36.46764
2006-03-29 07:33:38 51°19.526 2°44.83 -999 2.491473 24.544276 40.37793
2006-03-29 07:33:42 51°19.533 2°44.808 -999 2.924989 29.283324 35.490067
2006-03-29 07:33:48 51°19.542 2°44.775 -999 2.604414 25.768827 33.973144
2006-03-29 07:33:52 51°19.549 2°44.753 -999 2.604414 25.768827 33.973144
2006-03-29 07:33:58 51°19.558 2°44.72 -999 2.892829 28.929131 31.546067
2006-03-29 07:34:02 51°19.565 2°44.698 -999 3.07486 30.947568 40.276802
2006-03-29 07:34:08 51°19.574 2°44.664 -999 3.046516 30.634094 26.658204
2006-03-29 07:34:12 51°19.581 2°44.642 -999 2.608341 25.81805 34.917007
2006-03-29 07:34:18 51°19.59 2°44.609 -999 3.15421 31.838514 31.680905
2006-03-29 07:34:23 51°19.598 2°44.581 -999 3.15421 31.838514 31.680905
2006-03-29 07:34:27 51°19.605 2°44.559 -999 3.065653 30.850337 37.00699
2006-03-29 07:34:32 51°19.613 2°44.531 -999 2.850331 28.468041 40.344221
2006-03-29 07:34:38 51°19.622 2°44.498 -999 3.077032 30.977833 25.17499
2006-03-29 07:34:43 51°19.63 2°44.47 -999 3.056033 30.739882 39.703742
2006-03-29 07:34:48 51°19.638 2°44.442 -999 2.873596 28.717889 41.557759
2006-03-29 07:34:52 51°19.645 2°44.42 -999 2.873596 28.717889 41.557759
2006-03-29 07:34:58 51°19.654 2°44.387 -999 2.84454 28.394733 38.051982
2006-03-29 07:35:03 51°19.662 2°44.359 -999 3.092653 31.138658 35.220392
2006-03-29 07:35:07 51°19.668 2°44.336 -999 2.971114 29.788423 35.388939
2006-03-29 07:35:12 51°19.676 2°44.308 -999 3.064101 30.820955 31.208973
2006-03-29 07:35:16 51°19.683 2°44.286 -999 3.004418 30.159928 30.635913
2006-03-29 07:35:23 51°19.694 2°44.247 -999 3.004418 30.159928 30.635913
2006-03-29 07:35:28 51°19.702 2°44.218 -999 2.966356 29.738268 37.984563
2006-03-29 07:35:32 51°19.708 2°44.196 -999 2.473186 24.345297 33.872016
2006-03-29 07:35:37 51°19.716 2°44.168 -999 3.085411 31.058039 31.478648
2006-03-29 07:35:43 51°19.726 2°44.134 -999 2.942983 29.47475 37.714888
2006-03-29 07:35:48 51°19.733 2°44.106 -999 3.149244 31.766078 41.625178
2006-03-29 07:35:53 51°19.742 2°44.078 -999 3.149244 31.766078 41.625178
2006-03-29 07:35:58 51°19.749 2°44.05 -999 3.069791 30.878161 33.029281
2006-03-29 07:36:03 51°19.757 2°44.022 -999 2.904203 29.04159 39.771161
2006-03-29 07:36:08 51°19.765 2°43.994 -999 2.734954 27.18604 29.11899
2006-03-29 07:36:12 51°19.772 2°43.971 -999 2.874216 28.715054 29.085281
2006-03-29 07:36:18 51°19.781 2°43.938 -999 2.886107 28.845289 41.321794
2006-03-29 07:36:22 51°19.788 2°43.915 -999 2.886107 28.845289 41.321794
2006-03-29 07:36:28 51°19.797 2°43.881 -999 2.89438 28.93893 26.961589
2006-03-29 07:36:32 51°19.803 2°43.859 -999 2.927575 29.305306 29.995435
2006-03-29 07:36:38 51°19.813 2°43.825 -999 3.146554 31.736049 35.152973
2006-03-29 07:36:43 51°19.82 2°43.797 -999 2.571345 25.405279 38.355366
2006-03-29 07:36:48 51°19.828 2°43.768 -999 3.048688 30.651351 30.197691
2006-03-29 07:36:53 51°19.836 2°43.74 -999 3.048688 30.651351 30.197691
2006-03-29 07:36:58 51°19.843 2°43.712 -999 3.064205 30.824702 44.996118
2006-03-29 07:37:03 51°19.851 2°43.684 -999 3.001832 30.133795 35.860871
2006-03-29 07:37:08 51°19.859 2°43.656 -999 2.099744 20.356485 25.309828
2006-03-29 07:37:13 51°19.866 2°43.628 -999 2.787366 27.771176 32.725896
2006-03-29 07:37:18 51°19.874 2°43.6 -999 3.037931 30.540414 37.242956
2006-03-29 07:37:23 51°19.882 2°43.572 -999 3.037931 30.540414 37.242956
2006-03-29 07:37:28 51°19.89 2°43.544 -999 2.666424 26.449336 29.826888
2006-03-29 07:37:33 51°19.898 2°43.516 -999 2.659705 26.380499 29.489794
2006-03-29 07:37:36 51°19.902 2°43.499 -999 3.031517 30.4726 29.961725
2006-03-29 07:37:43 51°19.914 2°43.46 -999 2.361929 23.155562 32.220255
2006-03-29 07:37:48 51°19.922 2°43.432 -999 2.6503 26.275721 24.096289
2006-03-29 07:37:53 51°19.93 2°43.404 -999 2.6503 26.275721 24.096289
2006-03-29 07:37:58 51°19.938 2°43.377 -999 3.022312 30.366958 34.411366
2006-03-29 07:38:03 51°19.946 2°43.349 -999 2.950533 29.573158 32.692187
2006-03-29 07:38:08 51°19.954 2°43.321 -999 2.771549 27.602304 35.254101
2006-03-29 07:38:12 51°19.961 2°43.299 -999 2.42618 23.850265 30.703332
2006-03-29 07:38:18 51°19.97 2°43.265 -999 2.939364 29.454582 35.32152
2006-03-29 07:38:23 51°19.977 2°43.237 -999 2.939364 29.454582 35.32152
2006-03-29 07:38:28 51°19.985 2°43.208 -999 2.901929 29.044202 30.871879
2006-03-29 07:38:32 51°19.991 2°43.186 -999 2.616092 25.912563 37.512631
2006-03-29 07:38:38 51°20 2°43.152 -999 2.822208 28.1681 37.613759
2006-03-29 07:38:42 51°20.006 2°43.13 -999 2.698982 26.81611 29.759469
2006-03-29 07:38:48 51°20.015 2°43.096 -999 2.517303 24.83835 35.692324
2006-03-29 07:38:53 51°20.023 2°43.069 -999 2.517303 24.83835 35.692324
2006-03-29 07:38:58 51°20.031 2°43.041 -999 2.424837 23.838465 35.085554
2006-03-29 07:39:03 51°20.039 2°43.013 -999 3.118516 31.446252 26.489657
2006-03-29 07:39:08 51°20.046 2°42.985 -999 2.731129 27.162481 31.916871
2006-03-29 07:39:13 51°20.053 2°42.957 -999 2.688026 26.691123 30.399947
2006-03-29 07:39:18 51°20.061 2°42.929 -999 3.007521 30.20621 29.489794
2006-03-29 07:39:22 51°20.066 2°42.906 -999 3.007521 30.20621 29.489794
2006-03-29 07:39:28 51°20.075 2°42.872 -999 2.615782 25.896829 35.523777
2006-03-29 07:39:32 51°20.081 2°42.85 -999 2.691023 26.716371 30.298819
2006-03-29 07:39:38 51°20.09 2°42.816 -999 2.965426 29.7288 39.198101
2006-03-29 07:39:43 51°20.097 2°42.788 -999 3.102894 31.250972 36.939571
2006-03-29 07:39:48 51°20.105 2°42.76 -999 2.389508 23.437574 29.69205
2006-03-29 07:39:52 51°20.11 2°42.738 -999 2.389508 23.437574 29.69205
2006-03-29 07:39:56 51°20.116 2°42.715 -999 2.865013 28.611284 34.984426
2006-03-29 07:40:02 51°20.125 2°42.681 -999 3.081273 30.999798 33.63605
2006-03-29 07:40:08 51°20.134 2°42.648 -999 2.839888 28.32685 37.074409
2006-03-29 07:40:12 51°20.14 2°42.625 -999 3.115723 31.379823 25.849178
2006-03-29 07:40:18 51°20.149 2°42.592 -999 3.098446 31.183912 38.928426
2006-03-29 07:40:23 51°20.156 2°42.564 -999 3.098446 31.183912 38.928426
2006-03-29 07:40:28 51°20.163 2°42.536 -999 2.957255 29.615112 38.085691
2006-03-29 07:40:33 51°20.171 2°42.507 -999 2.755215 27.38864 26.961589
2006-03-29 07:40:38 51°20.178 2°42.479 -999 2.87101 28.65723 30.534785
2006-03-29 07:40:42 51°20.184 2°42.456 -999 3.168591 31.951667 38.490204
2006-03-29 07:40:48 51°20.192 2°42.422 -999 2.859429 28.524205 32.253965
2006-03-29 07:40:53 51°20.199 2°42.394 -999 2.859429 28.524205 32.253965
2006-03-29 07:40:58 51°20.206 2°42.365 -999 2.965736 29.693061 25.579503
2006-03-29 07:41:03 51°20.213 2°42.337 -999 3.172523 31.985692 37.849725
2006-03-29 07:41:08 51°20.219 2°42.308 -999 2.557601 25.220097 31.074136
2006-03-29 07:41:13 51°20.225 2°42.278 -999 3.164763 31.893725 26.152563
2006-03-29 07:41:18 51°20.231 2°42.249 -999 3.141897 31.633457 37.242956
2006-03-29 07:41:23 51°20.237 2°42.22 -999 3.141897 31.633457 37.242956
2006-03-29 07:41:28 51°20.243 2°42.191 -999 2.866874 28.58767 41.288084
2006-03-29 07:41:33 51°20.249 2°42.161 -999 3.117584 31.359208 29.051571
2006-03-29 07:41:38 51°20.256 2°42.132 -999 2.948257 29.478464 38.321657
2006-03-29 07:41:42 51°20.261 2°42.109 -999 2.672624 26.453171 34.343947
2006-03-29 07:41:47 51°20.267 2°42.08 -999 3.191458 32.170972 22.545657
2006-03-29 07:41:52 51°20.273 2°42.051 -999 3.191458 32.170972 22.545657
2006-03-29 07:41:58 51°20.281 2°42.016 -999 2.978146 29.797713 39.231811
2006-03-29 07:42:03 51°20.287 2°41.986 -999 2.926023 29.220936 33.231537
2006-03-29 07:42:07 51°20.292 2°41.963 -999 3.106928 31.221415 24.736768
2006-03-29 07:42:12 51°20.298 2°41.933 -999 3.188561 32.12693 39.400358
2006-03-29 07:42:17 51°20.303 2°41.903 -999 2.636244 26.042897 36.43393
2006-03-29 07:42:23 51°20.309 2°41.868 -999 2.636244 26.042897 36.43393
2006-03-29 07:42:28 51°20.315 2°41.838 -999 3.00814 30.116682 30.602204
2006-03-29 07:42:32 51°20.319 2°41.815 -999 3.048894 30.564413 36.231674
2006-03-29 07:42:38 51°20.326 2°41.779 -999 2.672831 26.434708 31.242683
2006-03-29 07:42:43 51°20.332 2°41.75 -999 2.921369 29.151708 36.265383
2006-03-29 07:42:48 51°20.337 2°41.72 -999 3.190113 32.126251 42.164529
2006-03-29 07:42:52 51°20.342 2°41.697 -999 3.190113 32.126251 42.164529
2006-03-29 07:42:58 51°20.349 2°41.661 -999 2.616194 25.808655 34.613623
2006-03-29 07:43:03 51°20.355 2°41.632 -999 2.779611 27.584704 28.309965
2006-03-29 07:43:08 51°20.36 2°41.603 -999 3.041446 30.461449 38.085691
2006-03-29 07:43:13 51°20.366 2°41.574 -999 2.706733 26.782844 35.961999
2006-03-29 07:43:18 51°20.371 2°41.544 -999 3.016621 30.178406 33.804597
2006-03-29 07:43:23 51°20.377 2°41.515 -999 3.016621 30.178406 33.804597
2006-03-29 07:43:28 51°20.382 2°41.486 -999 3.202012 32.234622 30.197691
2006-03-29 07:43:33 51°20.388 2°41.457 -999 2.985696 29.831032 35.995708
2006-03-29 07:43:38 51°20.394 2°41.427 -999 2.752526 27.272855 30.568494
2006-03-29 07:43:42 51°20.398 2°41.404 -999 3.100307 31.097326 34.445076
2006-03-29 07:43:48 51°20.405 2°41.369 -999 3.143138 31.570309 35.624905
2006-03-29 07:43:53 51°20.411 2°41.34 -999 3.143138 31.570309 35.624905
2006-03-29 07:43:58 51°20.416 2°41.311 -999 2.807525 27.871311 37.310375
2006-03-29 07:44:03 51°20.422 2°41.282 -999 2.727613 26.999742 28.512221
2006-03-29 07:44:08 51°20.428 2°41.253 -999 3.025827 30.273399 35.658614
2006-03-29 07:44:12 51°20.433 2°41.23 -999 3.036688 30.394341 40.580187
2006-03-29 07:44:18 51°20.44 2°41.195 -999 3.139517 31.533589 39.096973
2006-03-29 07:44:23 51°20.445 2°41.165 -999 3.139517 31.533589 39.096973
2006-03-29 07:44:27 51°20.45 2°41.142 -999 3.091203 30.995489 39.029554
2006-03-29 07:44:32 51°20.455 2°41.113 -999 2.898618 28.869865 33.467503
2006-03-29 07:44:36 51°20.46 2°41.09 -999 2.779301 27.562054 30.467366
2006-03-29 07:44:43 51°20.467 2°41.048 -999 2.578061 25.374314 30.568494
2006-03-29 07:44:48 51°20.472 2°41.019 -999 3.145414 31.59561 41.052118
2006-03-29 07:44:53 51°20.476 2°40.989 -999 3.145414 31.59561 41.052118
2006-03-29 07:44:58 51°20.48 2°40.959 -999 2.790673 27.688616 29.961725
2006-03-29 07:45:03 51°20.484 2°40.928 -999 2.969148 29.647695 38.220529
2006-03-29 07:45:08 51°20.488 2°40.898 -999 2.888278 28.759503 41.726306
2006-03-29 07:45:13 51°20.492 2°40.868 -999 2.576717 25.364746 32.894443
2006-03-29 07:45:18 51°20.495 2°40.838 -999 3.124412 31.368395 38.389076
2006-03-29 07:45:23 51°20.499 2°40.807 -999 3.124412 31.368395 38.389076
2006-03-29 07:45:28 51°20.503 2°40.777 -999 3.046618 30.505904 38.15311
2006-03-29 07:45:33 51°20.506 2°40.746 -999 3.039481 30.426083 27.669486
2006-03-29 07:45:38 51°20.51 2°40.716 -999 3.144793 31.592242 32.961862
2006-03-29 07:45:43 51°20.514 2°40.686 -999 3.080341 30.876803 40.344221
2006-03-29 07:45:48 51°20.517 2°40.655 -999 3.055721 30.603239 33.0967
2006-03-29 07:45:53 51°20.52 2°40.625 -999 3.055721 30.603239 33.0967
2006-03-29 07:45:58 51°20.523 2°40.594 -999 3.153588 31.686488 31.748324
2006-03-29 07:46:03 51°20.527 2°40.563 -999 2.995314 29.930493 39.670033
2006-03-29 07:46:08 51°20.53 2°40.533 -999 2.554397 25.117194 26.253691
2006-03-29 07:46:13 51°20.533 2°40.502 -999 3.219189 32.41352 39.164392
2006-03-29 07:46:18 51°20.537 2°40.472 -999 3.021586 30.219767 34.579913
2006-03-29 07:46:23 51°20.54 2°40.441 -999 3.021586 30.219767 34.579913
2006-03-29 07:46:28 51°20.544 2°40.411 -999 2.924161 29.144138 33.231537
2006-03-29 07:46:33 51°20.547 2°40.381 -999 3.195907 32.153076 30.770751
2006-03-29 07:46:38 51°20.551 2°40.35 -999 3.063893 30.684286 45.737725
2006-03-29 07:46:43 51°20.555 2°40.32 -999 3.119239 31.296069 35.624905
2006-03-29 07:46:48 51°20.559 2°40.29 -999 3.172729 31.886966 32.52364
2006-03-29 07:46:53 51°20.563 2°40.259 -999 3.172729 31.886966 32.52364
2006-03-29 07:46:58 51°20.566 2°40.229 -999 3.201184 32.199276 42.771298
2006-03-29 07:47:03 51°20.57 2°40.199 -999 2.954358 29.463305 31.006717
2006-03-29 07:47:08 51°20.574 2°40.168 -999 3.157933 31.713539 27.096426
2006-03-29 07:47:12 51°20.576 2°40.143 -999 2.830271 28.095903 38.051982
2006-03-29 07:47:18 51°20.581 2°40.107 -999 2.838542 28.186413 29.456084
2006-03-29 07:47:23 51°20.584 2°40.076 -999 2.838542 28.186413 29.456084
2006-03-29 07:47:28 51°20.587 2°40.046 -999 3.051997 30.534709 34.681042
2006-03-29 07:47:32 51°20.59 2°40.021 -999 3.071341 30.749572 36.973281
2006-03-29 07:47:37 51°20.593 2°39.99 -999 2.860566 28.432342 37.613759
2006-03-29 07:47:43 51°20.597 2°39.954 -999 2.54086 24.959217 35.051845
2006-03-29 07:47:48 51°20.601 2°39.923 -999 3.227985 32.49711 30.163982
2006-03-29 07:47:53 51°20.604 2°39.892 -999 3.227985 32.49711 30.163982
2006-03-29 07:47:58 51°20.608 2°39.862 -999 3.186387 32.032712 35.152973
2006-03-29 07:48:03 51°20.611 2°39.832 -999 2.760176 27.334944 34.984426
2006-03-29 07:48:08 51°20.615 2°39.802 -999 3.189077 32.059077 23.725486
2006-03-29 07:48:13 51°20.619 2°39.771 -999 3.245577 32.687009 35.119264
2006-03-29 07:48:18 51°20.623 2°39.741 -999 2.695983 26.630121 36.130546
2006-03-29 07:48:23 51°20.627 2°39.711 -999 2.695983 26.630121 36.130546
2006-03-29 07:48:28 51°20.63 2°39.68 -999 3.138275 31.488098 35.692324
2006-03-29 07:48:33 51°20.634 2°39.65 -999 3.065134 30.674887 39.400358
2006-03-29 07:48:38 51°20.637 2°39.619 -999 2.830064 28.089721 35.388939
2006-03-29 07:48:43 51°20.641 2°39.589 -999 3.077341 30.811689 34.20911
2006-03-29 07:48:48 51°20.644 2°39.558 -999 3.279004 33.054821 35.32152
2006-03-29 07:48:52 51°20.647 2°39.534 -999 3.279004 33.054821 35.32152
2006-03-29 07:48:58 51°20.651 2°39.497 -999 3.082823 30.870667 39.26552
2006-03-29 07:49:03 51°20.655 2°39.467 -999 2.767205 27.404729 30.130272
2006-03-29 07:49:08 51°20.658 2°39.436 -999 3.243921 32.663967 35.456358
2006-03-29 07:49:13 51°20.661 2°39.405 -999 3.225294 32.458032 39.872289
2006-03-29 07:49:18 51°20.663 2°39.375 -999 2.624668 25.860091 34.74846
2006-03-29 07:49:23 51°20.666 2°39.344 -999 2.624668 25.860091 34.74846
2006-03-29 07:49:28 51°20.668 2°39.313 -999 2.96108 29.534021 34.445076
2006-03-29 07:49:32 51°20.669 2°39.289 -999 3.186387 32.026448 40.141965
2006-03-29 07:49:38 51°20.672 2°39.252 -999 3.190215 32.072643 38.490204
2006-03-29 07:49:43 51°20.674 2°39.221 -999 3.15845 31.717517 33.0967
2006-03-29 07:49:48 51°20.676 2°39.19 -999 2.356763 22.977644 37.546341
2006-03-29 07:49:52 51°20.679 2°39.166 -999 2.356763 22.977644 37.546341
2006-03-29 07:49:58 51°20.681 2°39.129 -999 3.066582 30.697766 30.197691
2006-03-29 07:50:03 51°20.684 2°39.099 -999 3.240195 32.625137 31.512358
2006-03-29 07:50:07 51°20.686 2°39.074 -999 3.178109 31.930775 32.085418
2006-03-29 07:50:12 51°20.688 2°39.043 -999 3.007726 30.042326 35.658614
2006-03-29 07:50:18 51°20.691 2°39.007 -999 3.186594 32.026962 29.860597
2006-03-29 07:50:22 51°20.692 2°38.982 -999 3.186594 32.026962 29.860597
2006-03-29 07:50:27 51°20.695 2°38.952 -999 3.212669 32.314617 34.546204
2006-03-29 07:50:32 51°20.697 2°38.921 -999 3.00214 29.979037 38.085691
2006-03-29 07:50:38 51°20.7 2°38.885 -999 3.151208 31.627312 38.287947
2006-03-29 07:50:43 51°20.702 2°38.854 -999 3.207806 32.25323 34.647332
2006-03-29 07:50:48 51°20.705 2°38.823 -999 3.155657 31.66966 37.58005
2006-03-29 07:50:53 51°20.707 2°38.792 -999 3.155657 31.66966 37.58005
2006-03-29 07:50:58 51°20.709 2°38.762 -999 2.46337 24.106168 30.770751
2006-03-29 07:51:03 51°20.711 2°38.731 -999 3.225501 32.442212 34.276529
2006-03-29 07:51:08 51°20.713 2°38.701 -999 3.171901 31.842162 35.624905
2006-03-29 07:51:12 51°20.715 2°38.676 -999 2.822619 27.994247 31.310101
2006-03-29 07:51:18 51°20.718 2°38.64 -999 3.218257 32.358802 27.635777
2006-03-29 07:51:23 51°20.72 2°38.609 -999 3.218257 32.358802 27.635777
2006-03-29 07:51:28 51°20.722 2°38.578 -999 3.042997 30.410592 35.490067
2006-03-29 07:51:32 51°20.724 2°38.554 -999 2.971215 29.617532 39.568905
2006-03-29 07:51:38 51°20.727 2°38.517 -999 3.135171 31.426433 30.534785
2006-03-29 07:51:43 51°20.73 2°38.486 -999 3.179764 31.919769 26.422238
2006-03-29 07:51:48 51°20.732 2°38.455 -999 3.110031 31.146026 36.771024
2006-03-29 07:51:52 51°20.734 2°38.431 -999 3.110031 31.146026 36.771024
2006-03-29 07:51:58 51°20.736 2°38.394 -999 3.091099 30.934681 36.669896
2006-03-29 07:52:03 51°20.739 2°38.363 -999 3.171176 31.821678 34.512494
2006-03-29 07:52:08 51°20.741 2°38.332 -999 3.204081 32.18748 40.917281
2006-03-29 07:52:13 51°20.742 2°38.301 -999 2.846813 28.247005 33.06299
2006-03-29 07:52:18 51°20.744 2°38.271 -999 2.999347 29.922345 32.48993
2006-03-29 07:52:22 51°20.746 2°38.246 -999 2.999347 29.922345 32.48993
2006-03-29 07:52:28 51°20.748 2°38.209 -999 3.295769 33.209797 36.265383
2006-03-29 07:52:32 51°20.75 2°38.185 -999 2.518335 24.684703 34.478785
2006-03-29 07:52:38 51°20.753 2°38.148 -999 3.160209 31.704299 33.568631
2006-03-29 07:52:43 51°20.755 2°38.117 -999 3.167141 31.782177 39.400358
2006-03-29 07:52:48 51°20.757 2°38.086 -999 3.003278 29.973179 37.00699
2006-03-29 07:52:53 51°20.759 2°38.055 -999 3.003278 29.973179 37.00699
2006-03-29 07:52:58 51°20.761 2°38.025 -999 2.980007 29.718449 28.613349
2006-03-29 07:53:03 51°20.763 2°37.993 -999 3.125549 31.329356 38.523913
2006-03-29 07:53:08 51°20.766 2°37.962 -999 2.883107 28.658692 33.905725
2006-03-29 07:53:12 51°20.768 2°37.938 -999 3.087582 30.912143 39.83858
2006-03-29 07:53:18 51°20.77 2°37.901 -999 3.148518 31.590376 36.029418
2006-03-29 07:53:23 51°20.772 2°37.87 -999 3.148518 31.590376 36.029418
2006-03-29 07:53:28 51°20.775 2°37.839 -999 2.97287 29.650631 33.939435
2006-03-29 07:53:33 51°20.777 2°37.808 -999 2.924988 29.125575 36.973281
2006-03-29 07:53:38 51°20.779 2°37.777 -999 3.195699 32.122932 33.231537
2006-03-29 07:53:43 51°20.78 2°37.746 -999 2.978662 29.721055 33.872016
2006-03-29 07:53:48 51°20.782 2°37.715 -999 3.090479 30.958902 26.523366
2006-03-29 07:53:53 51°20.784 2°37.684 -999 3.090479 30.958902 26.523366
2006-03-29 07:53:58 51°20.786 2°37.653 -999 3.216602 32.359334 33.804597
2006-03-29 07:54:03 51°20.788 2°37.622 -999 2.764621 27.378074 40.95099
2006-03-29 07:54:08 51°20.79 2°37.591 -999 2.513479 24.658563 34.141691
2006-03-29 07:54:13 51°20.792 2°37.56 -999 3.194665 32.119488 31.444939
2006-03-29 07:54:18 51°20.794 2°37.529 -999 2.956426 29.479491 40.310512
2006-03-29 07:54:23 51°20.796 2°37.498 -999 2.956426 29.479491 40.310512
2006-03-29 07:54:28 51°20.798 2°37.467 -999 2.889518 28.745822 40.647606
2006-03-29 07:54:33 51°20.8 2°37.436 -999 3.175005 31.899813 32.186546
2006-03-29 07:54:38 51°20.802 2°37.405 -999 3.135895 31.462558 34.040563
2006-03-29 07:54:43 51°20.804 2°37.374 -999 3.002864 29.992046 33.63605
2006-03-29 07:54:48 51°20.805 2°37.343 -999 3.233159 32.54573 39.602614
2006-03-29 07:54:53 51°20.807 2°37.312 -999 3.233159 32.54573 39.602614
2006-03-29 07:54:58 51°20.809 2°37.281 -999 3.167142 31.808808 39.670033
2006-03-29 07:55:03 51°20.811 2°37.25 -999 2.640377 26.02884 36.703606
2006-03-29 07:55:08 51°20.813 2°37.219 -999 2.992108 29.876746 40.9847
2006-03-29 07:55:13 51°20.815 2°37.188 -999 3.043825 30.445214 41.861144
2006-03-29 07:55:18 51°20.817 2°37.157 -999 2.900893 28.86905 35.860871
2006-03-29 07:55:23 51°20.819 2°37.125 -999 2.900893 28.86905 35.860871
2006-03-29 07:55:28 51°20.821 2°37.094 -999 3.195596 32.126266 35.388939
2006-03-29 07:55:33 51°20.824 2°37.063 -999 2.7272 26.968124 32.827024
2006-03-29 07:55:38 51°20.827 2°37.032 -999 3.097306 31.031084 35.759742
2006-03-29 07:55:42 51°20.829 2°37.007 -999 2.63707 25.987923 29.658341
2006-03-29 07:55:48 51°20.833 2°36.97 -999 3.228916 32.493876 30.602204
2006-03-29 07:55:52 51°20.836 2°36.945 -999 3.228916 32.493876 30.602204
2006-03-29 07:55:58 51°20.84 2°36.908 -999 3.170349 31.843581 36.197965
2006-03-29 07:56:03 51°20.844 2°36.877 -999 2.855189 28.368679 34.883298
2006-03-29 07:56:08 51°20.848 2°36.846 -999 2.634176 25.959469 31.512358
2006-03-29 07:56:12 51°20.851 2°36.822 -999 3.169314 31.832966 35.186683
2006-03-29 07:56:18 51°20.857 2°36.786 -999 2.865218 28.474593 33.231537
2006-03-29 07:56:23 51°20.861 2°36.756 -999 2.865218 28.474593 33.231537
2006-03-29 07:56:28 51°20.866 2°36.725 -999 2.807318 27.8395 40.310512
2006-03-29 07:56:32 51°20.87 2°36.701 -999 3.027585 30.258166 35.186683
2006-03-29 07:56:38 51°20.875 2°36.665 -999 2.682753 26.481956 31.37752
2006-03-29 07:56:42 51°20.879 2°36.641 -999 2.763277 27.357312 37.883435
2006-03-29 07:56:48 51°20.885 2°36.604 -999 3.275174 33.007418 29.354956
2006-03-29 07:56:53 51°20.89 2°36.574 -999 3.275174 33.007418 29.354956
2006-03-29 07:56:58 51°20.895 2°36.544 -999 3.241644 32.631272 36.332802
2006-03-29 07:57:03 51°20.899 2°36.514 -999 2.984351 29.778749 36.501349
2006-03-29 07:57:08 51°20.904 2°36.483 -999 2.870078 28.525462 35.32152
2006-03-29 07:57:13 51°20.909 2°36.453 -999 3.123377 31.316627 41.658888
2006-03-29 07:57:18 51°20.914 2°36.423 -999 3.04248 30.421006 39.535195
2006-03-29 07:57:23 51°20.918 2°36.392 -999 3.04248 30.421006 39.535195
2006-03-29 07:57:28 51°20.923 2°36.362 -999 3.153174 31.650032 40.209383
2006-03-29 07:57:32 51°20.927 2°36.338 -999 2.971009 29.635094 34.546204
2006-03-29 07:57:38 51°20.932 2°36.301 -999 2.851983 28.325667 36.636187
2006-03-29 07:57:43 51°20.936 2°36.27 -999 3.13931 31.494307 30.770751
2006-03-29 07:57:47 51°20.94 2°36.246 -999 2.503973 24.547318 41.186956
2006-03-29 07:57:52 51°20.944 2°36.215 -999 2.503973 24.547318 41.186956
2006-03-29 07:57:58 51°20.95 2°36.178 -999 2.94505 29.343659 36.838443
2006-03-29 07:58:03 51°20.954 2°36.148 -999 3.264825 32.888145 29.523503
2006-03-29 07:58:08 51°20.959 2°36.117 -999 3.137344 31.467214 32.793315
2006-03-29 07:58:12 51°20.962 2°36.093 -999 3.164865 31.77374 36.636187
2006-03-29 07:58:18 51°20.967 2°36.056 -999 2.56938 25.250869 31.107845
2006-03-29 07:58:23 51°20.972 2°36.026 -999 2.56938 25.250869 31.107845
2006-03-29 07:58:28 51°20.977 2°35.995 -999 3.188353 32.038483 35.490067
2006-03-29 07:58:33 51°20.981 2°35.964 -999 3.174281 31.88107 38.220529
2006-03-29 07:58:38 51°20.985 2°35.934 -999 2.953737 29.442499 38.861007
2006-03-29 07:58:43 51°20.989 2°35.903 -999 3.119859 31.276739 38.962136
2006-03-29 07:58:48 51°20.993 2°35.873 -999 3.139413 31.491059 38.591332
2006-03-29 07:58:52 51°20.996 2°35.848 -999 3.139413 31.491059 38.591332
2006-03-29 07:58:58 51°21.001 2°35.811 -999 3.181834 31.964177 39.366648
2006-03-29 07:59:03 51°21.006 2°35.78 -999 3.161347 31.734649 29.051571
2006-03-29 07:59:08 51°21.01 2°35.75 -999 3.016 30.12439 38.15311
2006-03-29 07:59:13 51°21.014 2°35.718 -999 2.672003 26.360854 38.490204
2006-03-29 07:59:18 51°21.018 2°35.688 -999 3.249509 32.71536 32.287674
2006-03-29 07:59:23 51°21.023 2°35.657 -999 3.249509 32.71536 32.287674
2006-03-29 07:59:27 51°21.026 2°35.632 -999 3.117273 31.241078 41.018409
2006-03-29 07:59:32 51°21.03 2°35.601 -999 2.900583 28.851955 31.647195
2006-03-29 07:59:38 51°21.035 2°35.564 -999 2.929848 29.172473 31.175264
2006-03-29 07:59:43 51°21.039 2°35.533 -999 3.188353 32.026856 42.130819
2006-03-29 07:59:47 51°21.042 2°35.509 -999 2.47959 24.277669 33.939435
2006-03-29 07:59:52 51°21.047 2°35.478 -999 2.47959 24.277669 33.939435
2006-03-29 07:59:58 51°21.052 2°35.441 -999 3.243714 32.645241 38.625042
2006-03-29 08:00:03 51°21.057 2°35.41 -999 2.946912 29.35594 38.15311
2006-03-29 08:00:08 51°21.061 2°35.379 -999 2.68513 26.497424 36.771024
2006-03-29 08:00:12 51°21.064 2°35.354 -999 3.214842 32.320771 41.490341
2006-03-29 08:00:18 51°21.069 2°35.317 -999 2.887863 28.704436 37.782306
2006-03-29 08:00:23 51°21.074 2°35.286 -999 2.887863 28.704436 37.782306
2006-03-29 08:00:28 51°21.078 2°35.256 -999 3.22726 32.457283 33.231537
2006-03-29 08:00:33 51°21.082 2°35.225 -999 3.187111 32.009471 40.816153
2006-03-29 08:00:38 51°21.086 2°35.193 -999 2.993762 29.869142 39.130683
2006-03-29 08:00:43 51°21.091 2°35.163 -999 3.234193 32.537272 27.804324
2006-03-29 08:00:48 51°21.095 2°35.132 -999 3.027481 30.24436 40.108255
2006-03-29 08:00:52 51°21.098 2°35.107 -999 3.027481 30.24436 40.108255
2006-03-29 08:00:58 51°21.104 2°35.07 -999 2.634176 25.944995 31.579777
2006-03-29 08:01:03 51°21.108 2°35.039 -999 3.072685 30.750718 29.220118
2006-03-29 08:01:08 51°21.112 2°35.009 -999 3.243403 32.649072 34.917007
2006-03-29 08:01:13 51°21.116 2°34.977 -999 2.679445 26.446044 32.051708
2006-03-29 08:01:18 51°21.12 2°34.947 -999 3.237091 32.58595 32.017999
2006-03-29 08:01:23 51°21.124 2°34.915 -999 3.237091 32.58595 32.017999
2006-03-29 08:01:28 51°21.128 2°34.884 -999 3.007312 30.036923 29.354956
2006-03-29 08:01:33 51°21.132 2°34.853 -999 3.028102 30.268102 34.546204
2006-03-29 08:01:38 51°21.137 2°34.822 -999 2.820759 27.991864 36.029418
2006-03-29 08:01:43 51°21.141 2°34.791 -999 2.93688 29.264448 35.287811
2006-03-29 08:01:48 51°21.145 2°34.76 -999 3.035757 30.353502 36.366512
2006-03-29 08:01:53 51°21.15 2°34.729 -999 3.035757 30.353502 36.366512
2006-03-29 08:01:58 51°21.154 2°34.698 -999 2.7364 27.072053 38.018272
2006-03-29 08:02:03 51°21.158 2°34.667 -999 3.245059 32.678495 35.085554
2006-03-29 08:02:08 51°21.162 2°34.636 -999 3.16083 31.741309 33.366375
2006-03-29 08:02:12 51°21.165 2°34.611 -999 2.935329 29.248206 31.040426
2006-03-29 08:02:18 51°21.17 2°34.573 -999 3.150897 31.631814 32.017999
2006-03-29 08:02:23 51°21.175 2°34.542 -999 3.150897 31.631814 32.017999